Time,TemperatureF,DewpointF,PressureIn,WindDirection,WindDirectionDegrees,WindSpeedMPH,WindSpeedGustMPH,Humidity,HourlyPrecipIn,Conditions,Clouds,dailyrainin,SoftwareType,DateUTC
2014-03-09 00:00:00,75.0,68.0,30.01,SE,135,2.0,4.0,83,0.00,,,0.00,meteohub,2014-03-09 04:00:00,
2014-03-09 00:01:00,75.0,68.0,30.01,NE,45,2.0,4.0,83,0.00,,,0.00,meteohub,2014-03-09 04:01:00,
2014-03-09 00:02:00,75.0,68.0,30.02,East,90,2.0,4.0,83,0.00,,,0.00,meteohub,2014-03-09 04:02:00,
2014-03-09 00:03:00,74.8,68.0,30.02,SE,135,2.0,4.0,83,0.00,,,0.00,meteohub,2014-03-09 04:03:00,
2014-03-09 00:06:00,74.8,68.0,30.01,NE,45,2.0,3.0,83,0.00,,,0.00,meteohub,2014-03-09 04:06:00,
2014-03-09 00:07:00,74.8,68.0,30.01,NE,45,2.0,3.0,83,0.00,,,0.00,meteohub,2014-03-09 04:07:00,
2014-03-09 00:09:00,74.8,68.0,30.02,SE,135,2.0,3.0,83,0.00,,,0.00,meteohub,2014-03-09 04:09:00,
2014-03-09 00:10:00,74.8,68.0,30.02,SE,135,2.0,3.0,83,0.00,,,0.00,meteohub,2014-03-09 04:10:00,
2014-03-09 00:11:00,74.8,68.0,30.01,ESE,113,2.0,3.0,83,0.00,,,0.00,meteohub,2014-03-09 04:11:00,
2014-03-09 00:12:00,74.8,68.0,30.01,East,90,3.0,3.0,83,0.00,,,0.00,meteohub,2014-03-09 04:12:00,
2014-03-09 00:16:00,74.8,68.0,30.01,SE,135,4.0,4.0,83,0.00,,,0.00,meteohub,2014-03-09 04:16:00,
2014-03-09 00:17:00,74.8,68.0,30.01,SE,135,4.0,4.0,83,0.00,,,0.00,meteohub,2014-03-09 04:17:00,
2014-03-09 00:18:00,74.8,68.0,30.01,East,90,4.0,4.0,83,0.00,,,0.00,meteohub,2014-03-09 04:18:00,
2014-03-09 00:19:00,74.8,68.0,30.01,SE,135,4.0,4.0,83,0.00,,,0.00,meteohub,2014-03-09 04:19:00,
2014-03-09 00:22:00,75.0,68.4,30.01,SE,135,4.0,4.0,83,0.00,,,0.00,meteohub,2014-03-09 04:22:00,
2014-03-09 00:23:00,75.0,68.4,30.01,SE,135,4.0,4.0,83,0.00,,,0.00,meteohub,2014-03-09 04:23:00,
2014-03-09 00:24:00,75.0,68.4,30.01,East,90,5.0,5.0,83,0.00,,,0.00,meteohub,2014-03-09 04:24:00,
2014-03-09 00:25:00,75.0,68.4,30.01,South,180,3.0,4.0,83,0.00,,,0.00,meteohub,2014-03-09 04:25:00,
2014-03-09 00:27:00,75.0,68.4,30.01,SE,135,5.0,5.0,83,0.00,,,0.00,meteohub,2014-03-09 04:27:00,
2014-03-09 00:28:00,75.0,68.4,30.01,SE,135,3.0,4.0,83,0.00,,,0.00,meteohub,2014-03-09 04:28:00,
2014-03-09 00:30:00,75.0,68.4,30.01,East,90,2.0,4.0,83,0.00,,,0.00,meteohub,2014-03-09 04:30:00,
2014-03-09 00:32:00,75.0,68.4,30.02,SSE,158,2.0,5.0,83,0.00,,,0.00,meteohub,2014-03-09 04:32:00,
2014-03-09 00:33:00,75.0,68.4,30.01,SSE,158,2.0,5.0,83,0.00,,,0.00,meteohub,2014-03-09 04:33:00,
2014-03-09 00:34:00,75.0,68.4,30.02,West,270,2.0,5.0,83,0.00,,,0.00,meteohub,2014-03-09 04:34:00,
2014-03-09 00:35:00,75.0,68.4,30.01,SE,135,2.0,5.0,83,0.00,,,0.00,meteohub,2014-03-09 04:35:00,
2014-03-09 00:36:00,75.0,68.4,30.01,South,180,2.0,5.0,83,0.00,,,0.00,meteohub,2014-03-09 04:36:00,
2014-03-09 00:39:00,74.8,68.4,30.01,NE,45,2.0,5.0,83,0.00,,,0.00,meteohub,2014-03-09 04:39:00,
2014-03-09 00:40:00,74.8,68.4,30.01,South,180,1.0,5.0,83,0.00,,,0.00,meteohub,2014-03-09 04:40:00,
2014-03-09 00:42:00,74.8,68.4,30.01,SW,225,2.0,5.0,83,0.00,,,0.00,meteohub,2014-03-09 04:42:00,
2014-03-09 00:44:00,74.8,68.2,30.01,SSE,158,2.0,5.0,83,0.00,,,0.00,meteohub,2014-03-09 04:44:00,
2014-03-09 00:46:00,74.8,68.2,30.01,South,180,2.0,2.0,83,0.00,,,0.00,meteohub,2014-03-09 04:46:00,
2014-03-09 00:48:00,74.8,68.2,30.01,SW,225,2.0,2.0,83,0.00,,,0.00,meteohub,2014-03-09 04:48:00,
2014-03-09 00:49:00,74.8,68.2,30.01,SW,225,2.0,2.0,83,0.00,,,0.00,meteohub,2014-03-09 04:49:00,
2014-03-09 00:50:00,74.8,68.2,30.01,South,180,2.0,2.0,83,0.00,,,0.00,meteohub,2014-03-09 04:50:00,
2014-03-09 00:51:00,74.5,68.2,30.01,SE,135,1.0,2.0,83,0.00,,,0.00,meteohub,2014-03-09 04:51:00,
2014-03-09 00:52:00,74.5,68.2,30.01,West,270,0.0,2.0,83,0.00,,,0.00,meteohub,2014-03-09 04:52:00,
2014-03-09 00:56:00,74.5,68.2,30.01,NW,315,1.0,2.0,83,0.00,,,0.00,meteohub,2014-03-09 04:56:00,
2014-03-09 00:57:00,74.5,68.2,30.01,NW,315,1.0,2.0,83,0.00,,,0.00,meteohub,2014-03-09 04:57:00,
2014-03-09 00:58:00,74.5,68.2,30.01,East,90,1.0,2.0,83,0.00,,,0.00,meteohub,2014-03-09 04:58:00,
2014-03-09 01:00:00,74.5,68.2,30.01,South,180,2.0,2.0,83,0.00,,,0.00,meteohub,2014-03-09 05:00:00,
2014-03-09 01:01:00,74.5,68.2,30.01,NE,45,1.0,2.0,83,0.00,,,0.00,meteohub,2014-03-09 05:01:00,
2014-03-09 01:02:00,74.5,68.2,30.01,South,180,1.0,2.0,83,0.00,,,0.00,meteohub,2014-03-09 05:02:00,
2014-03-09 01:03:00,74.5,68.2,30.01,South,180,2.0,2.0,84,0.00,,,0.00,meteohub,2014-03-09 05:03:00,
2014-03-09 01:07:00,74.5,68.2,30.01,WSW,248,2.0,2.0,84,0.00,,,0.00,meteohub,2014-03-09 05:07:00,
2014-03-09 01:08:00,74.5,68.2,30.01,SW,225,2.0,2.0,84,0.00,,,0.00,meteohub,2014-03-09 05:08:00,
2014-03-09 01:11:00,74.5,68.2,30.01,NW,315,2.0,2.0,84,0.00,,,0.00,meteohub,2014-03-09 05:11:00,
2014-03-09 01:13:00,74.5,68.0,30.01,NW,315,2.0,2.0,84,0.00,,,0.00,meteohub,2014-03-09 05:13:00,
2014-03-09 01:14:00,74.5,68.0,30.01,NW,315,2.0,2.0,84,0.00,,,0.00,meteohub,2014-03-09 05:14:00,
2014-03-09 01:16:00,74.5,68.0,30.01,SW,225,2.0,2.0,84,0.00,,,0.00,meteohub,2014-03-09 05:16:00,
2014-03-09 01:18:00,74.5,68.0,30.01,South,180,2.0,2.0,84,0.00,,,0.00,meteohub,2014-03-09 05:18:00,
2014-03-09 01:19:00,74.5,68.0,30.01,West,270,1.0,2.0,84,0.00,,,0.00,meteohub,2014-03-09 05:19:00,
2014-03-09 01:21:00,74.5,68.0,30.00,SE,135,2.0,2.0,84,0.00,,,0.00,meteohub,2014-03-09 05:21:00,
2014-03-09 01:22:00,74.5,68.0,30.00,SE,135,2.0,2.0,84,0.00,,,0.00,meteohub,2014-03-09 05:22:00,
2014-03-09 01:23:00,74.5,68.0,30.00,East,90,2.0,2.0,84,0.00,,,0.00,meteohub,2014-03-09 05:23:00,
2014-03-09 01:25:00,74.3,68.0,30.00,SE,135,2.0,2.0,84,0.00,,,0.00,meteohub,2014-03-09 05:25:00,
2014-03-09 01:26:00,74.3,68.0,30.00,SE,135,2.0,2.0,84,0.00,,,0.00,meteohub,2014-03-09 05:26:00,
2014-03-09 01:27:00,74.3,68.0,30.00,SE,135,2.0,2.0,84,0.00,,,0.00,meteohub,2014-03-09 05:27:00,
2014-03-09 01:28:00,74.3,68.0,30.00,South,180,2.0,2.0,84,0.00,,,0.00,meteohub,2014-03-09 05:28:00,
2014-03-09 01:30:00,74.3,68.0,30.00,SE,135,2.0,2.0,84,0.00,,,0.00,meteohub,2014-03-09 05:30:00,
2014-03-09 01:31:00,74.3,68.0,30.00,SE,135,2.0,2.0,84,0.00,,,0.00,meteohub,2014-03-09 05:31:00,
2014-03-09 01:32:00,74.3,68.0,30.00,SE,135,2.0,2.0,84,0.00,,,0.00,meteohub,2014-03-09 05:32:00,
2014-03-09 01:33:00,74.3,68.0,30.00,South,180,2.0,2.0,84,0.00,,,0.00,meteohub,2014-03-09 05:33:00,
2014-03-09 01:34:00,74.1,67.8,30.00,NE,45,1.0,2.0,85,0.00,,,0.00,meteohub,2014-03-09 05:34:00,
2014-03-09 01:37:00,73.9,67.8,30.00,South,180,2.0,2.0,85,0.00,,,0.00,meteohub,2014-03-09 05:37:00,
2014-03-09 01:39:00,73.9,67.8,30.00,SW,225,2.0,2.0,85,0.00,,,0.00,meteohub,2014-03-09 05:39:00,
2014-03-09 01:42:00,73.9,67.8,30.00,SE,135,1.0,2.0,85,0.00,,,0.00,meteohub,2014-03-09 05:42:00,
2014-03-09 01:44:00,73.8,67.8,30.00,NW,315,2.0,2.0,85,0.00,,,0.00,meteohub,2014-03-09 05:44:00,
2014-03-09 01:45:00,73.9,67.8,30.00,NW,315,2.0,2.0,85,0.00,,,0.00,meteohub,2014-03-09 05:45:00,
2014-03-09 01:47:00,73.9,67.8,30.00,NW,315,2.0,2.0,85,0.00,,,0.00,meteohub,2014-03-09 05:47:00,
2014-03-09 01:48:00,73.9,67.8,30.00,NW,315,2.0,2.0,85,0.00,,,0.00,meteohub,2014-03-09 05:48:00,
2014-03-09 01:49:00,73.9,67.8,30.00,NW,315,2.0,2.0,85,0.00,,,0.00,meteohub,2014-03-09 05:49:00,
2014-03-09 01:51:00,74.1,67.8,30.00,NNW,338,2.0,2.0,85,0.00,,,0.00,meteohub,2014-03-09 05:51:00,
2014-03-09 01:52:00,74.1,67.8,29.99,NW,315,2.0,2.0,85,0.00,,,0.00,meteohub,2014-03-09 05:52:00,
2014-03-09 01:54:00,74.1,67.6,30.00,North,0,1.0,2.0,85,0.00,,,0.00,meteohub,2014-03-09 05:54:00,
2014-03-09 01:56:00,74.1,68.0,29.99,North,0,0.0,2.0,85,0.00,,,0.00,meteohub,2014-03-09 05:56:00,
2014-03-09 01:57:00,74.1,68.0,29.99,North,0,0.0,2.0,85,0.00,,,0.00,meteohub,2014-03-09 05:57:00,
2014-03-09 01:58:00,73.9,68.0,30.00,NW,315,2.0,2.0,85,0.00,,,0.00,meteohub,2014-03-09 05:58:00,
2014-03-09 01:59:00,74.1,68.0,29.99,North,0,2.0,2.0,85,0.00,,,0.00,meteohub,2014-03-09 05:59:00,
2014-03-09 02:02:00,74.1,68.0,29.99,NNW,338,1.0,2.0,85,0.00,,,0.00,meteohub,2014-03-09 06:02:00,
2014-03-09 02:04:00,74.1,68.0,30.00,NW,315,2.0,2.0,85,0.00,,,0.00,meteohub,2014-03-09 06:04:00,
2014-03-09 02:05:00,74.1,67.8,30.00,North,0,1.0,2.0,85,0.00,,,0.00,meteohub,2014-03-09 06:05:00,
2014-03-09 02:06:00,74.1,67.8,30.00,NW,315,2.0,2.0,85,0.00,,,0.00,meteohub,2014-03-09 06:06:00,
2014-03-09 02:07:00,74.1,67.8,30.00,West,270,2.0,2.0,85,0.00,,,0.00,meteohub,2014-03-09 06:07:00,
2014-03-09 02:10:00,74.1,67.8,29.99,NW,315,0.0,2.0,85,0.00,,,0.00,meteohub,2014-03-09 06:10:00,
2014-03-09 02:11:00,74.1,67.8,29.99,NW,315,0.0,2.0,85,0.00,,,0.00,meteohub,2014-03-09 06:11:00,
2014-03-09 02:12:00,74.1,67.8,29.99,NW,315,0.0,2.0,85,0.00,,,0.00,meteohub,2014-03-09 06:12:00,
2014-03-09 02:14:00,73.9,67.8,29.99,SW,225,2.0,2.0,85,0.00,,,0.00,meteohub,2014-03-09 06:14:00,
2014-03-09 02:16:00,73.9,67.8,29.99,SW,225,2.0,2.0,85,0.00,,,0.00,meteohub,2014-03-09 06:16:00,
2014-03-09 02:17:00,73.9,67.8,29.99,SW,225,2.0,2.0,85,0.00,,,0.00,meteohub,2014-03-09 06:17:00,
2014-03-09 02:18:00,73.9,67.8,29.99,SW,225,2.0,2.0,85,0.00,,,0.00,meteohub,2014-03-09 06:18:00,
2014-03-09 02:22:00,73.8,67.8,29.99,SW,225,1.0,2.0,85,0.00,,,0.00,meteohub,2014-03-09 06:22:00,
2014-03-09 02:23:00,73.8,67.5,29.99,SW,225,0.0,2.0,85,0.00,,,0.00,meteohub,2014-03-09 06:23:00,
2014-03-09 02:24:00,73.8,67.6,29.99,SW,225,0.0,2.0,85,0.00,,,0.00,meteohub,2014-03-09 06:24:00,
2014-03-09 02:25:00,73.6,67.6,29.99,SW,225,0.0,2.0,85,0.00,,,0.00,meteohub,2014-03-09 06:25:00,
2014-03-09 02:28:00,73.6,67.6,29.99,SE,135,2.0,2.0,85,0.00,,,0.00,meteohub,2014-03-09 06:28:00,
2014-03-09 02:29:00,73.6,67.6,29.99,SE,135,2.0,2.0,85,0.00,,,0.00,meteohub,2014-03-09 06:29:00,
2014-03-09 02:30:00,73.6,67.6,29.99,SE,135,2.0,2.0,85,0.00,,,0.00,meteohub,2014-03-09 06:30:00,
2014-03-09 02:31:00,73.6,67.6,29.99,SE,135,1.0,2.0,85,0.00,,,0.00,meteohub,2014-03-09 06:31:00,
2014-03-09 02:32:00,73.6,67.6,29.99,SE,135,2.0,2.0,85,0.00,,,0.00,meteohub,2014-03-09 06:32:00,
2014-03-09 02:35:00,73.8,67.6,29.98,SE,135,2.0,2.0,86,0.00,,,0.00,meteohub,2014-03-09 06:35:00,
2014-03-09 02:36:00,73.6,67.6,29.98,ESE,113,2.0,2.0,86,0.00,,,0.00,meteohub,2014-03-09 06:36:00,
2014-03-09 02:37:00,73.6,67.6,29.99,SE,135,2.0,2.0,86,0.00,,,0.00,meteohub,2014-03-09 06:37:00,
2014-03-09 02:38:00,73.6,67.6,29.98,SE,135,2.0,2.0,86,0.00,,,0.00,meteohub,2014-03-09 06:38:00,
2014-03-09 02:40:00,73.6,67.6,29.98,SE,135,2.0,2.0,86,0.00,,,0.00,meteohub,2014-03-09 06:40:00,
2014-03-09 02:41:00,73.6,67.6,29.98,East,90,2.0,2.0,86,0.00,,,0.00,meteohub,2014-03-09 06:41:00,
2014-03-09 02:42:00,73.6,67.5,29.98,East,90,2.0,2.0,86,0.00,,,0.00,meteohub,2014-03-09 06:42:00,
2014-03-09 02:43:00,73.6,67.5,29.98,SE,135,2.0,2.0,86,0.00,,,0.00,meteohub,2014-03-09 06:43:00,
2014-03-09 02:46:00,73.6,67.5,29.99,East,90,2.0,2.0,86,0.00,,,0.00,meteohub,2014-03-09 06:46:00,
2014-03-09 02:47:00,73.6,67.5,29.99,East,90,2.0,2.0,86,0.00,,,0.00,meteohub,2014-03-09 06:47:00,
2014-03-09 02:49:00,73.6,67.5,29.98,East,90,2.0,2.0,86,0.00,,,0.00,meteohub,2014-03-09 06:49:00,
2014-03-09 02:50:00,73.6,67.5,29.98,West,270,2.0,2.0,86,0.00,,,0.00,meteohub,2014-03-09 06:50:00,
2014-03-09 02:52:00,73.6,67.5,29.98,NE,45,2.0,2.0,86,0.00,,,0.00,meteohub,2014-03-09 06:52:00,
2014-03-09 02:53:00,73.6,67.5,29.99,SSE,158,2.0,2.0,86,0.00,,,0.00,meteohub,2014-03-09 06:53:00,
2014-03-09 02:54:00,73.6,67.3,29.98,South,180,2.0,2.0,86,0.00,,,0.00,meteohub,2014-03-09 06:54:00,
2014-03-09 02:55:00,73.6,67.3,29.98,South,180,2.0,2.0,86,0.00,,,0.00,meteohub,2014-03-09 06:55:00,
2014-03-09 02:57:00,73.6,67.5,29.98,South,180,3.0,3.0,85,0.00,,,0.00,meteohub,2014-03-09 06:57:00,
2014-03-09 02:58:00,73.6,67.5,29.98,SE,135,4.0,4.0,85,0.00,,,0.00,meteohub,2014-03-09 06:58:00,
2014-03-09 02:59:00,73.4,67.5,29.98,East,90,3.0,3.0,85,0.00,,,0.00,meteohub,2014-03-09 06:59:00,
2014-03-09 03:01:00,73.4,67.5,29.98,SE,135,3.0,4.0,85,0.00,,,0.00,meteohub,2014-03-09 07:01:00,
2014-03-09 03:02:00,73.4,67.5,29.98,SE,135,3.0,4.0,85,0.00,,,0.00,meteohub,2014-03-09 07:02:00,
2014-03-09 03:03:00,73.4,67.5,29.98,South,180,3.0,4.0,85,0.00,,,0.00,meteohub,2014-03-09 07:03:00,
2014-03-09 03:04:00,73.4,67.5,29.98,South,180,3.0,4.0,85,0.00,,,0.00,meteohub,2014-03-09 07:04:00,
2014-03-09 03:07:00,73.4,67.5,29.98,SE,135,4.0,4.0,86,0.00,,,0.00,meteohub,2014-03-09 07:07:00,
2014-03-09 03:09:00,73.4,67.5,29.98,SE,135,4.0,4.0,86,0.00,,,0.00,meteohub,2014-03-09 07:09:00,
2014-03-09 03:11:00,73.4,67.5,29.98,SE,135,4.0,4.0,86,0.00,,,0.00,meteohub,2014-03-09 07:11:00,
2014-03-09 03:12:00,73.2,67.5,29.97,South,180,4.0,4.0,85,0.00,,,0.00,meteohub,2014-03-09 07:12:00,
2014-03-09 03:13:00,73.4,67.3,29.97,South,180,3.0,4.0,86,0.00,,,0.00,meteohub,2014-03-09 07:13:00,
2014-03-09 03:15:00,73.4,67.3,29.98,SE,135,2.0,4.0,86,0.00,,,0.00,meteohub,2014-03-09 07:15:00,
2014-03-09 03:17:00,73.4,67.3,29.97,SE,135,3.0,4.0,86,0.00,,,0.00,meteohub,2014-03-09 07:17:00,
2014-03-09 03:20:00,73.2,67.3,29.98,SE,135,4.0,4.0,85,0.00,,,0.00,meteohub,2014-03-09 07:20:00,
2014-03-09 03:21:00,73.2,67.3,29.98,SSE,158,3.0,4.0,85,0.00,,,0.00,meteohub,2014-03-09 07:21:00,
2014-03-09 03:22:00,73.2,67.3,29.97,South,180,4.0,4.0,85,0.00,,,0.00,meteohub,2014-03-09 07:22:00,
2014-03-09 03:24:00,73.0,67.3,29.97,ESE,113,4.0,4.0,85,0.00,,,0.00,meteohub,2014-03-09 07:24:00,
2014-03-09 03:25:00,73.0,67.3,29.97,SE,135,4.0,4.0,85,0.00,,,0.00,meteohub,2014-03-09 07:25:00,
2014-03-09 03:26:00,73.0,67.3,29.97,SE,135,4.0,4.0,85,0.00,,,0.00,meteohub,2014-03-09 07:26:00,
2014-03-09 03:27:00,73.0,67.3,29.97,SE,135,3.0,4.0,85,0.00,,,0.00,meteohub,2014-03-09 07:27:00,
2014-03-09 03:29:00,73.0,67.3,29.97,SE,135,4.0,4.0,85,0.00,,,0.00,meteohub,2014-03-09 07:29:00,
2014-03-09 03:30:00,72.9,67.3,29.97,South,180,3.0,4.0,85,0.00,,,0.00,meteohub,2014-03-09 07:30:00,
2014-03-09 03:32:00,72.9,67.3,29.97,South,180,2.0,4.0,85,0.00,,,0.00,meteohub,2014-03-09 07:32:00,
2014-03-09 03:33:00,72.9,67.3,29.97,SSE,158,3.0,4.0,85,0.00,,,0.00,meteohub,2014-03-09 07:33:00,
2014-03-09 03:35:00,72.9,67.3,29.97,NW,315,3.0,4.0,85,0.00,,,0.00,meteohub,2014-03-09 07:35:00,
2014-03-09 03:37:00,72.9,67.3,29.97,SE,135,3.0,4.0,85,0.00,,,0.00,meteohub,2014-03-09 07:37:00,
2014-03-09 03:38:00,72.9,67.3,29.97,South,180,4.0,4.0,85,0.00,,,0.00,meteohub,2014-03-09 07:38:00,
2014-03-09 03:39:00,72.9,67.3,29.97,East,90,3.0,4.0,85,0.00,,,0.00,meteohub,2014-03-09 07:39:00,
2014-03-09 03:40:00,72.7,67.3,29.97,SW,225,2.0,4.0,85,0.00,,,0.00,meteohub,2014-03-09 07:40:00,
2014-03-09 03:42:00,72.7,67.3,29.97,SE,135,4.0,4.0,85,0.00,,,0.00,meteohub,2014-03-09 07:42:00,
2014-03-09 03:44:00,72.7,67.3,29.97,South,180,3.0,4.0,85,0.00,,,0.00,meteohub,2014-03-09 07:44:00,
2014-03-09 03:46:00,72.7,66.9,29.97,SW,225,4.0,4.0,85,0.00,,,0.00,meteohub,2014-03-09 07:46:00,
2014-03-09 03:47:00,72.7,67.1,29.97,South,180,4.0,4.0,85,0.00,,,0.00,meteohub,2014-03-09 07:47:00,
2014-03-09 03:49:00,72.7,67.1,29.97,SSE,158,2.0,4.0,85,0.00,,,0.00,meteohub,2014-03-09 07:49:00,
2014-03-09 03:50:00,72.7,67.1,29.97,SE,135,4.0,4.0,85,0.00,,,0.00,meteohub,2014-03-09 07:50:00,
2014-03-09 03:51:00,72.7,67.1,29.97,SE,135,4.0,4.0,85,0.00,,,0.00,meteohub,2014-03-09 07:51:00,
2014-03-09 03:52:00,72.7,67.1,29.97,East,90,3.0,4.0,85,0.00,,,0.00,meteohub,2014-03-09 07:52:00,
2014-03-09 03:55:00,72.5,67.1,29.97,East,90,2.0,4.0,86,0.00,,,0.00,meteohub,2014-03-09 07:55:00,
2014-03-09 03:56:00,72.5,67.1,29.97,East,90,2.0,4.0,86,0.00,,,0.00,meteohub,2014-03-09 07:56:00,
2014-03-09 03:57:00,72.5,67.1,29.97,East,90,2.0,4.0,86,0.00,,,0.00,meteohub,2014-03-09 07:57:00,
2014-03-09 04:00:00,72.5,67.1,29.98,East,90,2.0,4.0,86,0.00,,,0.00,meteohub,2014-03-09 08:00:00,
2014-03-09 04:01:00,72.3,67.1,29.97,SE,135,2.0,4.0,86,0.00,,,0.00,meteohub,2014-03-09 08:01:00,
2014-03-09 04:02:00,72.3,67.1,29.97,SE,135,3.0,4.0,86,0.00,,,0.00,meteohub,2014-03-09 08:02:00,
2014-03-09 04:03:00,72.3,67.1,29.97,SE,135,2.0,4.0,86,0.00,,,0.00,meteohub,2014-03-09 08:03:00,
2014-03-09 04:06:00,72.3,67.1,29.97,East,90,2.0,4.0,86,0.00,,,0.00,meteohub,2014-03-09 08:06:00,
2014-03-09 04:07:00,72.3,67.1,29.97,East,90,2.0,4.0,86,0.00,,,0.00,meteohub,2014-03-09 08:07:00,
2014-03-09 04:08:00,72.3,67.1,29.97,NE,45,2.0,4.0,86,0.00,,,0.00,meteohub,2014-03-09 08:08:00,
2014-03-09 04:10:00,72.3,67.1,29.97,East,90,2.0,3.0,86,0.00,,,0.00,meteohub,2014-03-09 08:10:00,
2014-03-09 04:11:00,72.3,67.1,29.97,East,90,2.0,3.0,86,0.00,,,0.00,meteohub,2014-03-09 08:11:00,
2014-03-09 04:12:00,72.3,67.1,29.97,East,90,2.0,3.0,86,0.00,,,0.00,meteohub,2014-03-09 08:12:00,
2014-03-09 04:13:00,72.5,67.1,29.97,East,90,2.0,3.0,86,0.00,,,0.00,meteohub,2014-03-09 08:13:00,
2014-03-09 04:15:00,72.5,67.1,29.97,SE,135,2.0,3.0,86,0.00,,,0.00,meteohub,2014-03-09 08:15:00,
2014-03-09 04:16:00,72.5,67.1,29.97,East,90,2.0,3.0,86,0.00,,,0.00,meteohub,2014-03-09 08:16:00,
2014-03-09 04:19:00,72.5,67.1,29.97,SE,135,3.0,3.0,86,0.00,,,0.00,meteohub,2014-03-09 08:19:00,
2014-03-09 04:21:00,72.5,67.1,29.97,SE,135,2.0,2.0,86,0.00,,,0.00,meteohub,2014-03-09 08:21:00,
2014-03-09 04:23:00,72.5,67.1,29.97,SE,135,2.0,2.0,86,0.00,,,0.00,meteohub,2014-03-09 08:23:00,
2014-03-09 04:24:00,72.5,67.1,29.97,SE,135,2.0,2.0,86,0.00,,,0.00,meteohub,2014-03-09 08:24:00,
2014-03-09 04:26:00,72.3,67.1,29.97,NE,45,2.0,3.0,86,0.00,,,0.00,meteohub,2014-03-09 08:26:00,
2014-03-09 04:28:00,72.3,67.1,29.97,NE,45,2.0,3.0,86,0.00,,,0.00,meteohub,2014-03-09 08:28:00,
2014-03-09 04:29:00,72.3,67.1,29.97,SE,135,2.0,3.0,86,0.00,,,0.00,meteohub,2014-03-09 08:29:00,
2014-03-09 04:31:00,72.3,67.1,29.97,East,90,2.0,3.0,86,0.00,,,0.00,meteohub,2014-03-09 08:31:00,
2014-03-09 04:33:00,72.3,66.9,29.97,SE,135,3.0,3.0,86,0.00,,,0.00,meteohub,2014-03-09 08:33:00,
2014-03-09 04:36:00,72.3,66.9,29.97,SW,225,3.0,3.0,87,0.00,,,0.00,meteohub,2014-03-09 08:36:00,
2014-03-09 04:37:00,72.3,66.9,29.97,SW,225,3.0,3.0,87,0.00,,,0.00,meteohub,2014-03-09 08:37:00,
2014-03-09 04:39:00,72.3,66.9,29.97,NW,315,2.0,3.0,87,0.00,,,0.00,meteohub,2014-03-09 08:39:00,
2014-03-09 04:40:00,72.3,66.9,29.97,SE,135,2.0,4.0,87,0.00,,,0.00,meteohub,2014-03-09 08:40:00,
2014-03-09 04:41:00,72.3,66.9,29.97,South,180,2.0,4.0,87,0.00,,,0.00,meteohub,2014-03-09 08:41:00,
2014-03-09 04:42:00,72.1,66.9,29.97,SE,135,2.0,4.0,87,0.00,,,0.00,meteohub,2014-03-09 08:42:00,
2014-03-09 04:44:00,72.1,66.9,29.98,SE,135,2.0,4.0,87,0.00,,,0.00,meteohub,2014-03-09 08:44:00,
2014-03-09 04:45:00,72.1,66.9,29.98,East,90,2.0,4.0,87,0.00,,,0.00,meteohub,2014-03-09 08:45:00,
2014-03-09 04:46:00,72.0,66.9,29.98,NW,315,2.0,4.0,87,0.00,,,0.00,meteohub,2014-03-09 08:46:00,
2014-03-09 04:47:00,72.0,66.9,29.98,NW,315,2.0,4.0,87,0.00,,,0.00,meteohub,2014-03-09 08:47:00,
2014-03-09 04:49:00,72.0,66.7,29.98,West,270,2.0,4.0,87,0.00,,,0.00,meteohub,2014-03-09 08:49:00,
2014-03-09 04:50:00,72.0,66.7,29.98,North,0,1.0,3.0,87,0.00,,,0.00,meteohub,2014-03-09 08:50:00,
2014-03-09 04:52:00,72.0,66.7,29.98,SW,225,1.0,3.0,87,0.00,,,0.00,meteohub,2014-03-09 08:52:00,
2014-03-09 04:54:00,71.8,66.7,29.98,West,270,2.0,3.0,87,0.00,,,0.00,meteohub,2014-03-09 08:54:00,
2014-03-09 04:55:00,71.8,66.7,29.98,South,180,3.0,3.0,87,0.00,,,0.00,meteohub,2014-03-09 08:55:00,
2014-03-09 04:56:00,72.0,66.7,29.98,SSW,203,2.0,2.0,87,0.00,,,0.00,meteohub,2014-03-09 08:56:00,
2014-03-09 04:57:00,72.0,66.7,29.98,South,180,2.0,2.0,87,0.00,,,0.00,meteohub,2014-03-09 08:57:00,
2014-03-09 04:58:00,72.0,66.7,29.97,East,90,1.0,2.0,87,0.00,,,0.00,meteohub,2014-03-09 08:58:00,
2014-03-09 04:59:00,72.0,66.7,29.98,NW,315,0.0,2.0,87,0.00,,,0.00,meteohub,2014-03-09 08:59:00,
2014-03-09 05:01:00,72.0,66.7,29.98,NW,315,0.0,3.0,87,0.00,,,0.00,meteohub,2014-03-09 09:01:00,
2014-03-09 05:02:00,71.8,66.7,29.98,NW,315,0.0,3.0,87,0.00,,,0.00,meteohub,2014-03-09 09:02:00,
2014-03-09 05:03:00,71.8,66.7,29.98,NW,315,0.0,3.0,87,0.00,,,0.00,meteohub,2014-03-09 09:03:00,
2014-03-09 05:04:00,71.8,66.7,29.98,NW,315,0.0,3.0,87,0.00,,,0.00,meteohub,2014-03-09 09:04:00,
2014-03-09 05:06:00,71.8,66.7,29.98,NW,315,0.0,3.0,87,0.00,,,0.00,meteohub,2014-03-09 09:06:00,
2014-03-09 05:08:00,71.8,66.7,29.98,NW,315,2.0,3.0,87,0.00,,,0.00,meteohub,2014-03-09 09:08:00,
2014-03-09 05:09:00,71.8,66.6,29.98,SW,225,1.0,3.0,87,0.00,,,0.00,meteohub,2014-03-09 09:09:00,
2014-03-09 05:10:00,71.8,66.6,29.98,NW,315,1.0,3.0,87,0.00,,,0.00,meteohub,2014-03-09 09:10:00,
2014-03-09 05:12:00,72.0,66.6,29.99,NW,315,2.0,3.0,87,0.00,,,0.00,meteohub,2014-03-09 09:12:00,
2014-03-09 05:13:00,72.0,66.6,29.98,NW,315,2.0,3.0,87,0.00,,,0.00,meteohub,2014-03-09 09:13:00,
2014-03-09 05:14:00,72.1,66.6,29.99,NW,315,2.0,3.0,87,0.00,,,0.00,meteohub,2014-03-09 09:14:00,
2014-03-09 05:16:00,72.1,66.6,29.98,NW,315,2.0,2.0,87,0.00,,,0.00,meteohub,2014-03-09 09:16:00,
2014-03-09 05:17:00,72.1,66.6,29.98,NW,315,1.0,2.0,87,0.00,,,0.00,meteohub,2014-03-09 09:17:00,
2014-03-09 05:18:00,72.1,66.6,29.98,NW,315,0.0,2.0,87,0.00,,,0.00,meteohub,2014-03-09 09:18:00,
2014-03-09 05:21:00,72.1,66.6,29.98,NW,315,0.0,2.0,87,0.00,,,0.00,meteohub,2014-03-09 09:21:00,
2014-03-09 05:22:00,72.1,66.6,29.99,NE,45,0.0,2.0,87,0.00,,,0.00,meteohub,2014-03-09 09:22:00,
2014-03-09 05:23:00,72.1,66.6,29.99,NE,45,0.0,2.0,87,0.00,,,0.00,meteohub,2014-03-09 09:23:00,
2014-03-09 05:24:00,72.1,66.6,29.99,NE,45,0.0,2.0,87,0.00,,,0.00,meteohub,2014-03-09 09:24:00,
2014-03-09 05:26:00,72.1,66.6,29.98,SE,135,2.0,2.0,87,0.00,,,0.00,meteohub,2014-03-09 09:26:00,
2014-03-09 05:27:00,72.1,66.6,29.98,SE,135,2.0,2.0,87,0.00,,,0.00,meteohub,2014-03-09 09:27:00,
2014-03-09 05:28:00,72.0,66.4,29.98,SE,135,2.0,2.0,87,0.00,,,0.00,meteohub,2014-03-09 09:28:00,
2014-03-09 05:29:00,72.0,66.4,29.98,SE,135,2.0,2.0,87,0.00,,,0.00,meteohub,2014-03-09 09:29:00,
2014-03-09 05:31:00,72.0,66.4,29.99,East,90,2.0,2.0,87,0.00,,,0.00,meteohub,2014-03-09 09:31:00,
2014-03-09 05:32:00,72.0,66.4,29.98,South,180,2.0,2.0,87,0.00,,,0.00,meteohub,2014-03-09 09:32:00,
2014-03-09 05:33:00,72.0,66.4,29.99,SE,135,2.0,2.0,87,0.00,,,0.00,meteohub,2014-03-09 09:33:00,
2014-03-09 05:34:00,72.0,66.4,29.99,SE,135,2.0,2.0,87,0.00,,,0.00,meteohub,2014-03-09 09:34:00,
2014-03-09 05:36:00,71.8,66.4,29.99,SE,135,2.0,2.0,87,0.00,,,0.00,meteohub,2014-03-09 09:36:00,
2014-03-09 05:39:00,71.8,66.4,29.99,SE,135,2.0,2.0,87,0.00,,,0.00,meteohub,2014-03-09 09:39:00,
2014-03-09 05:42:00,71.6,66.4,29.99,SE,135,1.0,2.0,87,0.00,,,0.00,meteohub,2014-03-09 09:42:00,
2014-03-09 05:44:00,71.6,66.4,29.99,East,90,2.0,2.0,87,0.00,,,0.00,meteohub,2014-03-09 09:44:00,
2014-03-09 05:47:00,71.6,66.4,29.99,SE,135,2.0,2.0,87,0.00,,,0.00,meteohub,2014-03-09 09:47:00,
2014-03-09 05:48:00,71.6,66.4,29.99,SE,135,2.0,2.0,88,0.00,,,0.00,meteohub,2014-03-09 09:48:00,
2014-03-09 05:49:00,71.4,66.4,29.99,East,90,3.0,3.0,89,0.00,,,0.00,meteohub,2014-03-09 09:49:00,
2014-03-09 05:50:00,71.6,66.4,29.99,South,180,3.0,3.0,88,0.00,,,0.00,meteohub,2014-03-09 09:50:00,
2014-03-09 05:51:00,71.4,66.4,29.99,South,180,3.0,3.0,89,0.00,,,0.00,meteohub,2014-03-09 09:51:00,
2014-03-09 05:52:00,71.4,66.4,29.99,SE,135,2.0,3.0,89,0.00,,,0.00,meteohub,2014-03-09 09:52:00,
2014-03-09 05:53:00,71.4,66.4,29.99,SE,135,2.0,3.0,89,0.00,,,0.00,meteohub,2014-03-09 09:53:00,
2014-03-09 05:55:00,71.4,66.2,29.99,NNE,23,4.0,4.0,89,0.00,,,0.00,meteohub,2014-03-09 09:55:00,
2014-03-09 05:56:00,71.4,66.2,29.99,NNE,23,4.0,4.0,89,0.00,,,0.00,meteohub,2014-03-09 09:56:00,
2014-03-09 05:58:00,71.2,66.2,30.00,SE,135,3.0,3.0,89,0.00,,,0.00,meteohub,2014-03-09 09:58:00,
2014-03-09 05:59:00,71.2,66.2,30.00,North,0,3.0,3.0,89,0.00,,,0.00,meteohub,2014-03-09 09:59:00,
2014-03-09 06:00:00,71.2,66.2,30.00,SW,225,3.0,4.0,89,0.00,,,0.00,meteohub,2014-03-09 10:00:00,
2014-03-09 06:02:00,71.2,66.2,30.00,SE,135,2.0,4.0,89,0.00,,,0.00,meteohub,2014-03-09 10:02:00,
2014-03-09 06:04:00,71.2,66.2,30.00,East,90,2.0,4.0,89,0.00,,,0.00,meteohub,2014-03-09 10:04:00,
2014-03-09 06:05:00,71.2,66.2,30.00,SE,135,4.0,4.0,90,0.00,,,0.00,meteohub,2014-03-09 10:05:00,
2014-03-09 06:06:00,71.2,66.2,30.00,SE,135,4.0,4.0,90,0.00,,,0.00,meteohub,2014-03-09 10:06:00,
2014-03-09 06:08:00,71.2,66.2,30.00,South,180,4.0,4.0,90,0.00,,,0.00,meteohub,2014-03-09 10:08:00,
2014-03-09 06:09:00,71.1,66.2,30.00,South,180,4.0,4.0,90,0.00,,,0.00,meteohub,2014-03-09 10:09:00,
2014-03-09 06:10:00,71.1,66.2,30.00,SE,135,5.0,5.0,90,0.00,,,0.00,meteohub,2014-03-09 10:10:00,
2014-03-09 06:11:00,71.1,66.2,30.00,SE,135,4.0,4.0,90,0.00,,,0.00,meteohub,2014-03-09 10:11:00,
2014-03-09 06:13:00,70.9,66.2,30.00,SE,135,4.0,4.0,90,0.00,,,0.00,meteohub,2014-03-09 10:13:00,
2014-03-09 06:16:00,70.9,66.2,30.00,West,270,2.0,5.0,90,0.00,,,0.00,meteohub,2014-03-09 10:16:00,
2014-03-09 06:17:00,70.9,66.2,30.00,West,270,2.0,5.0,90,0.00,,,0.00,meteohub,2014-03-09 10:17:00,
2014-03-09 06:18:00,70.9,66.2,30.00,NE,45,2.0,5.0,90,0.00,,,0.00,meteohub,2014-03-09 10:18:00,
2014-03-09 06:22:00,70.7,66.2,30.00,East,90,2.0,5.0,90,0.00,,,0.00,meteohub,2014-03-09 10:22:00,
2014-03-09 06:23:00,70.7,66.0,30.00,East,90,2.0,5.0,90,0.00,,,0.00,meteohub,2014-03-09 10:23:00,
2014-03-09 06:25:00,70.7,66.0,30.00,SE,135,2.0,5.0,90,0.00,,,0.00,meteohub,2014-03-09 10:25:00,
2014-03-09 06:26:00,70.7,66.0,30.00,SE,135,2.0,5.0,90,0.00,,,0.00,meteohub,2014-03-09 10:26:00,
2014-03-09 06:27:00,70.7,66.0,30.00,SE,135,4.0,5.0,90,0.00,,,0.00,meteohub,2014-03-09 10:27:00,
2014-03-09 06:31:00,70.7,66.0,30.00,SE,135,3.0,4.0,90,0.00,,,0.00,meteohub,2014-03-09 10:31:00,
2014-03-09 06:32:00,70.7,66.0,30.00,SE,135,3.0,4.0,90,0.00,,,0.00,meteohub,2014-03-09 10:32:00,
2014-03-09 06:33:00,70.5,66.0,30.00,SE,135,2.0,4.0,90,0.00,,,0.00,meteohub,2014-03-09 10:33:00,
2014-03-09 06:34:00,70.5,66.0,30.00,SE,135,2.0,4.0,90,0.00,,,0.00,meteohub,2014-03-09 10:34:00,
2014-03-09 06:36:00,70.5,66.0,30.01,SE,135,2.0,4.0,90,0.00,,,0.00,meteohub,2014-03-09 10:36:00,
2014-03-09 06:37:00,70.5,66.0,30.01,East,90,2.0,4.0,90,0.00,,,0.00,meteohub,2014-03-09 10:37:00,
2014-03-09 06:39:00,70.3,66.0,30.01,SE,135,2.0,4.0,90,0.00,,,0.00,meteohub,2014-03-09 10:39:00,
2014-03-09 06:40:00,70.3,66.0,30.01,SE,135,2.0,4.0,90,0.00,,,0.00,meteohub,2014-03-09 10:40:00,
2014-03-09 06:42:00,70.3,66.0,30.01,East,90,2.0,4.0,90,0.00,,,0.00,meteohub,2014-03-09 10:42:00,
2014-03-09 06:44:00,70.3,66.0,30.01,East,90,2.0,4.0,90,0.00,,,0.00,meteohub,2014-03-09 10:44:00,
2014-03-09 06:45:00,70.3,66.0,30.01,SE,135,3.0,4.0,90,0.00,,,0.00,meteohub,2014-03-09 10:45:00,
2014-03-09 06:47:00,70.5,65.8,30.01,SE,135,3.0,4.0,90,0.00,,,0.00,meteohub,2014-03-09 10:47:00,
2014-03-09 06:49:00,70.3,65.8,30.01,East,90,3.0,4.0,90,0.00,,,0.00,meteohub,2014-03-09 10:49:00,
2014-03-09 06:50:00,70.3,65.8,30.01,SE,135,4.0,4.0,90,0.00,,,0.00,meteohub,2014-03-09 10:50:00,
2014-03-09 06:51:00,70.3,65.8,30.01,SE,135,3.0,3.0,90,0.00,,,0.00,meteohub,2014-03-09 10:51:00,
2014-03-09 06:53:00,70.5,65.8,30.01,SSE,158,4.0,4.0,90,0.00,,,0.00,meteohub,2014-03-09 10:53:00,
2014-03-09 06:56:00,70.9,65.8,30.01,East,90,4.0,4.0,89,0.00,,,0.00,meteohub,2014-03-09 10:56:00,
2014-03-09 06:57:00,70.9,65.8,30.01,SE,135,2.0,4.0,89,0.00,,,0.00,meteohub,2014-03-09 10:57:00,
2014-03-09 06:58:00,71.1,65.8,30.02,SE,135,2.0,4.0,89,0.00,,,0.00,meteohub,2014-03-09 10:58:00,
2014-03-09 06:59:00,71.2,65.8,30.02,East,90,2.0,4.0,89,0.00,,,0.00,meteohub,2014-03-09 10:59:00,
2014-03-09 07:02:00,71.4,65.8,30.02,North,0,2.0,4.0,89,0.00,,,0.00,meteohub,2014-03-09 11:02:00,
2014-03-09 07:03:00,71.6,65.8,30.02,North,0,1.0,4.0,88,0.00,,,0.00,meteohub,2014-03-09 11:03:00,
2014-03-09 07:04:00,71.6,65.8,30.02,North,0,1.0,4.0,88,0.00,,,0.00,meteohub,2014-03-09 11:04:00,
2014-03-09 07:05:00,72.1,65.8,30.02,SW,225,2.0,4.0,88,0.00,,,0.00,meteohub,2014-03-09 11:05:00,
2014-03-09 07:07:00,72.5,65.7,30.02,SE,135,2.0,4.0,87,0.00,,,0.00,meteohub,2014-03-09 11:07:00,
2014-03-09 07:10:00,73.4,65.7,30.02,SE,135,2.0,4.0,87,0.00,,,0.00,meteohub,2014-03-09 11:10:00,
2014-03-09 07:11:00,73.6,65.7,30.02,SE,135,2.0,4.0,87,0.00,,,0.00,meteohub,2014-03-09 11:11:00,
2014-03-09 07:12:00,74.1,65.7,30.02,South,180,2.0,4.0,86,0.00,,,0.00,meteohub,2014-03-09 11:12:00,
2014-03-09 07:13:00,74.3,65.7,30.02,South,180,2.0,4.0,86,0.00,,,0.00,meteohub,2014-03-09 11:13:00,
2014-03-09 07:15:00,74.7,65.7,30.03,NE,45,2.0,2.0,85,0.00,,,0.00,meteohub,2014-03-09 11:15:00,
2014-03-09 07:16:00,74.8,65.7,30.02,SE,135,3.0,3.0,84,0.00,,,0.00,meteohub,2014-03-09 11:16:00,
2014-03-09 07:17:00,74.8,65.7,30.02,SE,135,3.0,3.0,84,0.00,,,0.00,meteohub,2014-03-09 11:17:00,
2014-03-09 07:19:00,74.8,65.7,30.03,South,180,2.0,2.0,81,0.00,,,0.00,meteohub,2014-03-09 11:19:00,
2014-03-09 07:20:00,74.7,65.7,30.03,SE,135,2.0,4.0,81,0.00,,,0.00,meteohub,2014-03-09 11:20:00,
2014-03-09 07:21:00,74.7,65.7,30.03,SE,135,2.0,4.0,81,0.00,,,0.00,meteohub,2014-03-09 11:21:00,
2014-03-09 07:22:00,74.8,65.7,30.03,SE,135,3.0,4.0,81,0.00,,,0.00,meteohub,2014-03-09 11:22:00,
2014-03-09 07:26:00,75.4,66.2,30.03,WSW,248,2.0,4.0,79,0.00,,,0.00,meteohub,2014-03-09 11:26:00,
2014-03-09 07:27:00,75.6,66.2,30.03,SE,135,2.0,4.0,79,0.00,,,0.00,meteohub,2014-03-09 11:27:00,
2014-03-09 07:28:00,76.1,66.2,30.03,East,90,3.0,4.0,79,0.00,,,0.00,meteohub,2014-03-09 11:28:00,
2014-03-09 07:32:00,76.6,66.2,30.03,East,90,4.0,4.0,77,0.00,,,0.00,meteohub,2014-03-09 11:32:00,
2014-03-09 07:33:00,76.8,66.2,30.03,East,90,2.0,4.0,76,0.00,,,0.00,meteohub,2014-03-09 11:33:00,
2014-03-09 07:35:00,77.2,66.2,30.03,SE,135,2.0,4.0,75,0.00,,,0.00,meteohub,2014-03-09 11:35:00,
2014-03-09 07:36:00,77.4,66.2,30.04,ESE,113,2.0,4.0,75,0.00,,,0.00,meteohub,2014-03-09 11:36:00,
2014-03-09 07:38:00,77.9,66.2,30.04,SE,135,2.0,4.0,74,0.00,,,0.00,meteohub,2014-03-09 11:38:00,
2014-03-09 07:39:00,78.1,66.2,30.04,SE,135,2.0,4.0,74,0.00,,,0.00,meteohub,2014-03-09 11:39:00,
2014-03-09 07:40:00,78.3,66.2,30.04,SSE,158,2.0,4.0,73,0.00,,,0.00,meteohub,2014-03-09 11:40:00,
2014-03-09 07:41:00,78.6,66.2,30.04,SE,135,2.0,4.0,73,0.00,,,0.00,meteohub,2014-03-09 11:41:00,
2014-03-09 07:43:00,78.8,66.2,30.04,East,90,2.0,4.0,71,0.00,,,0.00,meteohub,2014-03-09 11:43:00,
2014-03-09 07:44:00,79.0,66.0,30.04,NE,45,2.0,4.0,71,0.00,,,0.00,meteohub,2014-03-09 11:44:00,
2014-03-09 07:45:00,79.0,66.0,30.04,NE,45,2.0,4.0,71,0.00,,,0.00,meteohub,2014-03-09 11:45:00,
2014-03-09 07:47:00,79.5,66.0,30.04,NNE,23,2.0,4.0,70,0.00,,,0.00,meteohub,2014-03-09 11:47:00,
2014-03-09 07:48:00,79.7,66.0,30.04,North,0,2.0,4.0,70,0.00,,,0.00,meteohub,2014-03-09 11:48:00,
2014-03-09 07:49:00,79.9,66.0,30.04,NW,315,2.0,4.0,68,0.00,,,0.00,meteohub,2014-03-09 11:49:00,
2014-03-09 07:50:00,79.9,66.0,30.04,NW,315,2.0,3.0,67,0.00,,,0.00,meteohub,2014-03-09 11:50:00,
2014-03-09 07:51:00,79.9,66.0,30.04,West,270,3.0,3.0,67,0.00,,,0.00,meteohub,2014-03-09 11:51:00,
2014-03-09 07:53:00,79.3,66.0,30.04,West,270,2.0,3.0,67,0.00,,,0.00,meteohub,2014-03-09 11:53:00,
2014-03-09 07:55:00,79.0,66.0,30.04,South,180,2.0,3.0,68,0.00,,,0.00,meteohub,2014-03-09 11:55:00,
2014-03-09 07:57:00,79.3,66.0,30.04,SW,225,2.0,3.0,68,0.00,,,0.00,meteohub,2014-03-09 11:57:00,
2014-03-09 07:58:00,79.7,66.0,30.04,NNW,338,1.0,3.0,68,0.00,,,0.00,meteohub,2014-03-09 11:58:00,
2014-03-09 07:59:00,79.7,66.0,30.04,NNW,338,1.0,3.0,68,0.00,,,0.00,meteohub,2014-03-09 11:59:00,
2014-03-09 08:01:00,81.0,66.0,30.04,SE,135,2.0,3.0,69,0.00,,,0.00,meteohub,2014-03-09 12:01:00,
2014-03-09 08:02:00,81.3,66.0,30.04,SE,135,3.0,3.0,68,0.00,,,0.00,meteohub,2014-03-09 12:02:00,
2014-03-09 08:03:00,81.9,66.0,30.04,South,180,3.0,3.0,67,0.00,,,0.00,meteohub,2014-03-09 12:03:00,
2014-03-09 08:06:00,82.6,66.0,30.04,East,90,2.0,3.0,62,0.00,,,0.00,meteohub,2014-03-09 12:06:00,
2014-03-09 08:07:00,82.6,66.0,30.04,East,90,2.0,3.0,62,0.00,,,0.00,meteohub,2014-03-09 12:07:00,
2014-03-09 08:08:00,82.8,65.8,30.04,South,180,3.0,3.0,63,0.00,,,0.00,meteohub,2014-03-09 12:08:00,
2014-03-09 08:09:00,82.8,65.8,30.04,SE,135,3.0,3.0,62,0.00,,,0.00,meteohub,2014-03-09 12:09:00,
2014-03-09 08:11:00,82.8,65.8,30.04,South,180,2.0,3.0,62,0.00,,,0.00,meteohub,2014-03-09 12:11:00,
2014-03-09 08:12:00,82.8,65.8,30.04,South,180,2.0,3.0,62,0.00,,,0.00,meteohub,2014-03-09 12:12:00,
2014-03-09 08:14:00,83.1,65.8,30.04,SE,135,2.0,3.0,62,0.00,,,0.00,meteohub,2014-03-09 12:14:00,
2014-03-09 08:15:00,83.1,65.8,30.04,SE,135,2.0,3.0,62,0.00,,,0.00,meteohub,2014-03-09 12:15:00,
2014-03-09 08:17:00,83.3,65.8,30.04,SE,135,2.0,3.0,61,0.00,,,0.00,meteohub,2014-03-09 12:17:00,
2014-03-09 08:19:00,83.5,65.8,30.04,NE,45,1.0,3.0,61,0.00,,,0.00,meteohub,2014-03-09 12:19:00,
2014-03-09 08:20:00,83.5,65.8,30.04,East,90,2.0,3.0,61,0.00,,,0.00,meteohub,2014-03-09 12:20:00,
2014-03-09 08:21:00,83.7,65.8,30.05,East,90,2.0,3.0,61,0.00,,,0.00,meteohub,2014-03-09 12:21:00,
2014-03-09 08:22:00,84.0,65.8,30.05,NW,315,2.0,3.0,60,0.00,,,0.00,meteohub,2014-03-09 12:22:00,
2014-03-09 08:24:00,84.2,65.8,30.05,SE,135,2.0,3.0,60,0.00,,,0.00,meteohub,2014-03-09 12:24:00,
2014-03-09 08:25:00,84.6,65.8,30.05,South,180,2.0,3.0,59,0.00,,,0.00,meteohub,2014-03-09 12:25:00,
2014-03-09 08:29:00,85.5,65.7,30.05,SSW,203,4.0,4.0,58,0.00,,,0.00,meteohub,2014-03-09 12:29:00,
2014-03-09 08:30:00,85.3,65.7,30.05,SW,225,2.0,2.0,58,0.00,,,0.00,meteohub,2014-03-09 12:30:00,
2014-03-09 08:31:00,85.3,65.7,30.05,SW,225,2.0,2.0,58,0.00,,,0.00,meteohub,2014-03-09 12:31:00,
2014-03-09 08:32:00,85.3,65.7,30.05,West,270,2.0,2.0,58,0.00,,,0.00,meteohub,2014-03-09 12:32:00,
2014-03-09 08:33:00,85.5,65.7,30.05,SW,225,4.0,4.0,58,0.00,,,0.00,meteohub,2014-03-09 12:33:00,
2014-03-09 08:36:00,84.7,65.7,30.05,West,270,2.0,4.0,59,0.00,,,0.00,meteohub,2014-03-09 12:36:00,
2014-03-09 08:37:00,84.9,65.7,30.05,East,90,2.0,4.0,58,0.00,,,0.00,meteohub,2014-03-09 12:37:00,
2014-03-09 08:39:00,84.7,65.7,30.06,South,180,4.0,4.0,58,0.00,,,0.00,meteohub,2014-03-09 12:39:00,
2014-03-09 08:40:00,84.4,65.7,30.06,South,180,3.0,4.0,58,0.00,,,0.00,meteohub,2014-03-09 12:40:00,
2014-03-09 08:41:00,84.4,65.7,30.06,NW,315,2.0,4.0,59,0.00,,,0.00,meteohub,2014-03-09 12:41:00,
2014-03-09 08:42:00,84.2,65.7,30.06,South,180,3.0,4.0,59,0.00,,,0.00,meteohub,2014-03-09 12:42:00,
2014-03-09 08:43:00,84.2,65.7,30.06,SW,225,3.0,4.0,59,0.00,,,0.00,meteohub,2014-03-09 12:43:00,
2014-03-09 08:44:00,84.4,65.7,30.06,South,180,4.0,4.0,59,0.00,,,0.00,meteohub,2014-03-09 12:44:00,
2014-03-09 08:47:00,84.4,65.7,30.06,West,270,3.0,4.0,59,0.00,,,0.00,meteohub,2014-03-09 12:47:00,
2014-03-09 08:48:00,84.4,65.7,30.06,SW,225,2.0,4.0,59,0.00,,,0.00,meteohub,2014-03-09 12:48:00,
2014-03-09 08:49:00,84.4,65.7,30.06,SW,225,4.0,4.0,59,0.00,,,0.00,meteohub,2014-03-09 12:49:00,
2014-03-09 08:52:00,84.7,65.5,30.06,NNE,23,2.0,4.0,59,0.00,,,0.00,meteohub,2014-03-09 12:52:00,
2014-03-09 08:53:00,84.7,65.5,30.06,NNE,23,2.0,4.0,59,0.00,,,0.00,meteohub,2014-03-09 12:53:00,
2014-03-09 08:54:00,85.3,65.5,30.06,SW,225,4.0,4.0,58,0.00,,,0.00,meteohub,2014-03-09 12:54:00,
2014-03-09 08:56:00,85.1,65.5,30.06,SW,225,2.0,4.0,57,0.00,,,0.00,meteohub,2014-03-09 12:56:00,
2014-03-09 08:57:00,84.7,65.5,30.06,West,270,3.0,4.0,57,0.00,,,0.00,meteohub,2014-03-09 12:57:00,
2014-03-09 08:58:00,84.7,65.5,30.06,NW,315,2.0,4.0,57,0.00,,,0.00,meteohub,2014-03-09 12:58:00,
2014-03-09 08:59:00,84.7,65.5,30.06,NW,315,3.0,4.0,57,0.00,,,0.00,meteohub,2014-03-09 12:59:00,
2014-03-09 09:01:00,84.4,66.0,30.06,NW,315,3.0,4.0,57,0.00,,,0.00,meteohub,2014-03-09 13:01:00,
2014-03-09 09:02:00,84.2,66.0,30.06,SW,225,2.0,4.0,57,0.00,,,0.00,meteohub,2014-03-09 13:02:00,
2014-03-09 09:05:00,83.5,66.0,30.06,West,270,1.0,4.0,60,0.00,,,0.00,meteohub,2014-03-09 13:05:00,
2014-03-09 09:06:00,83.7,66.0,30.06,South,180,3.0,4.0,60,0.00,,,0.00,meteohub,2014-03-09 13:06:00,
2014-03-09 09:07:00,83.7,66.0,30.06,SW,225,4.0,4.0,60,0.00,,,0.00,meteohub,2014-03-09 13:07:00,
2014-03-09 09:08:00,83.8,66.0,30.07,West,270,4.0,4.0,60,0.00,,,0.00,meteohub,2014-03-09 13:08:00,
2014-03-09 09:10:00,84.2,66.0,30.06,West,270,3.0,4.0,58,0.00,,,0.00,meteohub,2014-03-09 13:10:00,
2014-03-09 09:12:00,84.4,66.0,30.06,West,270,2.0,4.0,58,0.00,,,0.00,meteohub,2014-03-09 13:12:00,
2014-03-09 09:13:00,84.4,66.0,30.06,NW,315,1.0,4.0,58,0.00,,,0.00,meteohub,2014-03-09 13:13:00,
2014-03-09 09:15:00,84.4,65.8,30.06,NW,315,2.0,4.0,57,0.00,,,0.00,meteohub,2014-03-09 13:15:00,
2014-03-09 09:17:00,84.4,65.8,30.06,South,180,2.0,4.0,57,0.00,,,0.00,meteohub,2014-03-09 13:17:00,
2014-03-09 09:18:00,84.7,65.8,30.07,SW,225,3.0,4.0,57,0.00,,,0.00,meteohub,2014-03-09 13:18:00,
2014-03-09 09:21:00,85.5,65.8,30.07,SE,135,2.0,4.0,57,0.00,,,0.00,meteohub,2014-03-09 13:21:00,
2014-03-09 09:23:00,86.4,65.8,30.06,NE,45,2.0,4.0,55,0.00,,,0.00,meteohub,2014-03-09 13:23:00,
2014-03-09 09:24:00,86.5,65.8,30.07,East,90,2.0,4.0,55,0.00,,,0.00,meteohub,2014-03-09 13:24:00,
2014-03-09 09:29:00,87.1,65.8,30.06,SE,135,3.0,3.0,54,0.00,,,0.00,meteohub,2014-03-09 13:29:00,
2014-03-09 09:30:00,87.3,65.8,30.07,South,180,4.0,4.0,53,0.00,,,0.00,meteohub,2014-03-09 13:30:00,
2014-03-09 09:31:00,87.3,65.8,30.06,South,180,3.0,4.0,53,0.00,,,0.00,meteohub,2014-03-09 13:31:00,
2014-03-09 09:33:00,87.3,65.8,30.06,SE,135,4.0,4.0,53,0.00,,,0.00,meteohub,2014-03-09 13:33:00,
2014-03-09 09:35:00,86.9,65.8,30.06,SE,135,2.0,4.0,54,0.00,,,0.00,meteohub,2014-03-09 13:35:00,
2014-03-09 09:36:00,87.1,65.8,30.06,SE,135,2.0,4.0,54,0.00,,,0.00,meteohub,2014-03-09 13:36:00,
2014-03-09 09:37:00,87.3,65.8,30.06,East,90,2.0,4.0,54,0.00,,,0.00,meteohub,2014-03-09 13:37:00,
2014-03-09 09:39:00,87.6,65.8,30.06,SE,135,2.0,4.0,54,0.00,,,0.00,meteohub,2014-03-09 13:39:00,
2014-03-09 09:41:00,88.0,65.8,30.06,North,0,4.0,4.0,53,0.00,,,0.00,meteohub,2014-03-09 13:41:00,
2014-03-09 09:42:00,88.2,65.8,30.06,SW,225,2.0,4.0,52,0.00,,,0.00,meteohub,2014-03-09 13:42:00,
2014-03-09 09:43:00,88.3,65.8,30.07,East,90,2.0,4.0,52,0.00,,,0.00,meteohub,2014-03-09 13:43:00,
2014-03-09 09:44:00,88.5,65.8,30.07,East,90,2.0,4.0,52,0.00,,,0.00,meteohub,2014-03-09 13:44:00,
2014-03-09 09:45:00,88.7,65.8,30.07,ENE,68,2.0,4.0,52,0.00,,,0.00,meteohub,2014-03-09 13:45:00,
2014-03-09 09:46:00,88.9,65.8,30.06,NE,45,4.0,4.0,51,0.00,,,0.00,meteohub,2014-03-09 13:46:00,
2014-03-09 09:48:00,88.9,65.8,30.06,East,90,2.0,4.0,50,0.00,,,0.00,meteohub,2014-03-09 13:48:00,
2014-03-09 09:50:00,88.2,65.8,30.06,East,90,4.0,4.0,50,0.00,,,0.00,meteohub,2014-03-09 13:50:00,
2014-03-09 09:52:00,87.6,65.8,30.07,North,0,2.0,4.0,51,0.00,,,0.00,meteohub,2014-03-09 13:52:00,
2014-03-09 09:53:00,87.4,65.8,30.06,East,90,4.0,4.0,52,0.00,,,0.00,meteohub,2014-03-09 13:53:00,
2014-03-09 09:54:00,86.9,65.8,30.06,North,0,4.0,4.0,53,0.00,,,0.00,meteohub,2014-03-09 13:54:00,
2014-03-09 09:58:00,85.3,65.8,30.07,North,0,6.0,6.0,55,0.00,,,0.00,meteohub,2014-03-09 13:58:00,
2014-03-09 10:00:00,84.4,65.7,30.06,North,0,4.0,6.0,56,0.00,,,0.00,meteohub,2014-03-09 14:00:00,
2014-03-09 10:05:00,84.4,65.8,30.06,NW,315,3.0,6.0,56,0.00,,,0.00,meteohub,2014-03-09 14:05:00,
2014-03-09 10:06:00,84.4,65.8,30.06,NW,315,3.0,6.0,56,0.00,,,0.00,meteohub,2014-03-09 14:06:00,
2014-03-09 10:07:00,84.7,65.8,30.07,NW,315,3.0,6.0,56,0.00,,,0.00,meteohub,2014-03-09 14:07:00,
2014-03-09 10:09:00,84.7,65.7,30.06,NW,315,3.0,6.0,55,0.00,,,0.00,meteohub,2014-03-09 14:09:00,
2014-03-09 10:11:00,84.7,65.7,30.06,West,270,4.0,6.0,55,0.00,,,0.00,meteohub,2014-03-09 14:11:00,
2014-03-09 10:12:00,84.7,65.7,30.06,NW,315,3.0,6.0,55,0.00,,,0.00,meteohub,2014-03-09 14:12:00,
2014-03-09 10:13:00,84.4,65.7,30.06,West,270,2.0,6.0,55,0.00,,,0.00,meteohub,2014-03-09 14:13:00,
2014-03-09 10:14:00,84.4,65.7,30.06,SW,225,3.0,6.0,55,0.00,,,0.00,meteohub,2014-03-09 14:14:00,
2014-03-09 10:18:00,84.0,65.7,30.06,South,180,3.0,5.0,57,0.00,,,0.00,meteohub,2014-03-09 14:18:00,
2014-03-09 10:19:00,84.0,65.8,30.07,NNE,23,2.0,5.0,57,0.00,,,0.00,meteohub,2014-03-09 14:19:00,
2014-03-09 10:20:00,84.0,65.8,30.07,North,0,2.0,5.0,57,0.00,,,0.00,meteohub,2014-03-09 14:20:00,
2014-03-09 10:22:00,84.4,65.8,30.07,SE,135,2.0,4.0,56,0.00,,,0.00,meteohub,2014-03-09 14:22:00,
2014-03-09 10:24:00,84.7,65.8,30.06,SW,225,2.0,4.0,56,0.00,,,0.00,meteohub,2014-03-09 14:24:00,
2014-03-09 10:25:00,85.8,65.8,30.06,SW,225,3.0,4.0,55,0.00,,,0.00,meteohub,2014-03-09 14:25:00,
2014-03-09 10:27:00,86.5,65.8,30.06,South,180,3.0,4.0,53,0.00,,,0.00,meteohub,2014-03-09 14:27:00,
2014-03-09 10:29:00,87.6,65.8,30.06,NW,315,2.0,4.0,52,0.00,,,0.00,meteohub,2014-03-09 14:29:00,
2014-03-09 10:30:00,88.2,65.8,30.06,NW,315,4.0,4.0,50,0.00,,,0.00,meteohub,2014-03-09 14:30:00,
2014-03-09 10:31:00,88.2,65.8,30.06,NW,315,4.0,4.0,50,0.00,,,0.00,meteohub,2014-03-09 14:31:00,
2014-03-09 10:32:00,88.0,65.8,30.06,NW,315,3.0,4.0,50,0.00,,,0.00,meteohub,2014-03-09 14:32:00,
2014-03-09 10:34:00,87.6,65.8,30.06,NE,45,6.0,6.0,51,0.00,,,0.00,meteohub,2014-03-09 14:34:00,
2014-03-09 10:35:00,87.4,65.8,30.06,North,0,4.0,4.0,51,0.00,,,0.00,meteohub,2014-03-09 14:35:00,
2014-03-09 10:36:00,87.4,65.8,30.06,North,0,5.0,5.0,51,0.00,,,0.00,meteohub,2014-03-09 14:36:00,
2014-03-09 10:37:00,86.9,65.8,30.06,North,0,4.0,4.0,52,0.00,,,0.00,meteohub,2014-03-09 14:37:00,
2014-03-09 10:38:00,86.5,65.8,30.06,North,0,8.0,8.0,52,0.00,,,0.00,meteohub,2014-03-09 14:38:00,
2014-03-09 10:39:00,86.2,65.8,30.06,North,0,6.0,6.0,53,0.00,,,0.00,meteohub,2014-03-09 14:39:00,
2014-03-09 10:42:00,85.5,65.8,30.06,North,0,7.0,8.0,55,0.00,,,0.00,meteohub,2014-03-09 14:42:00,
2014-03-09 10:43:00,85.5,65.8,30.06,NNW,338,5.0,8.0,56,0.00,,,0.00,meteohub,2014-03-09 14:43:00,
2014-03-09 10:44:00,85.5,65.8,30.06,North,0,7.0,8.0,56,0.00,,,0.00,meteohub,2014-03-09 14:44:00,
2014-03-09 10:45:00,85.6,65.8,30.06,North,0,5.0,8.0,56,0.00,,,0.00,meteohub,2014-03-09 14:45:00,
2014-03-09 10:47:00,85.8,65.8,30.06,North,0,4.0,8.0,55,0.00,,,0.00,meteohub,2014-03-09 14:47:00,
2014-03-09 10:50:00,85.8,65.8,30.06,NW,315,6.0,8.0,55,0.00,,,0.00,meteohub,2014-03-09 14:50:00,
2014-03-09 10:51:00,84.9,65.8,30.06,NW,315,6.0,8.0,55,0.00,,,0.00,meteohub,2014-03-09 14:51:00,
2014-03-09 10:52:00,84.9,65.8,30.06,NW,315,6.0,8.0,55,0.00,,,0.00,meteohub,2014-03-09 14:52:00,
2014-03-09 10:54:00,83.8,65.8,30.06,North,0,7.0,8.0,57,0.00,,,0.00,meteohub,2014-03-09 14:54:00,
2014-03-09 10:55:00,83.5,65.8,30.06,North,0,5.0,8.0,58,0.00,,,0.00,meteohub,2014-03-09 14:55:00,
2014-03-09 10:56:00,83.1,65.8,30.06,NW,315,4.0,7.0,58,0.00,,,0.00,meteohub,2014-03-09 14:56:00,
2014-03-09 10:57:00,82.9,65.8,30.06,North,0,4.0,7.0,59,0.00,,,0.00,meteohub,2014-03-09 14:57:00,
2014-03-09 11:00:00,83.7,65.8,30.06,North,0,8.0,8.0,59,0.00,,,0.00,meteohub,2014-03-09 15:00:00,
2014-03-09 11:01:00,83.5,65.8,30.06,NW,315,6.0,7.0,59,0.00,,,0.00,meteohub,2014-03-09 15:01:00,
2014-03-09 11:02:00,83.1,65.8,30.06,North,0,5.0,7.0,60,0.00,,,0.00,meteohub,2014-03-09 15:02:00,
2014-03-09 11:03:00,82.8,65.8,30.06,East,90,5.0,7.0,61,0.00,,,0.00,meteohub,2014-03-09 15:03:00,
2014-03-09 11:05:00,82.4,65.8,30.06,North,0,6.0,8.0,63,0.00,,,0.00,meteohub,2014-03-09 15:05:00,
2014-03-09 11:07:00,82.2,65.8,30.06,North,0,7.0,8.0,63,0.00,,,0.00,meteohub,2014-03-09 15:07:00,
2014-03-09 11:08:00,82.0,65.8,30.06,NW,315,5.0,8.0,64,0.00,,,0.00,meteohub,2014-03-09 15:08:00,
2014-03-09 11:09:00,81.9,65.8,30.05,North,0,8.0,8.0,64,0.00,,,0.00,meteohub,2014-03-09 15:09:00,
2014-03-09 11:11:00,81.9,65.8,30.05,North,0,5.0,8.0,64,0.00,,,0.00,meteohub,2014-03-09 15:11:00,
2014-03-09 11:13:00,82.2,66.0,30.05,North,0,2.0,8.0,64,0.00,,,0.00,meteohub,2014-03-09 15:13:00,
2014-03-09 11:14:00,82.8,66.0,30.05,NE,45,3.0,8.0,63,0.00,,,0.00,meteohub,2014-03-09 15:14:00,
2014-03-09 11:16:00,83.1,66.0,30.05,North,0,9.0,9.0,63,0.00,,,0.00,meteohub,2014-03-09 15:16:00,
2014-03-09 11:17:00,83.1,66.0,30.05,North,0,9.0,9.0,63,0.00,,,0.00,meteohub,2014-03-09 15:17:00,
2014-03-09 11:19:00,82.9,66.0,30.05,West,270,8.0,8.0,62,0.00,,,0.00,meteohub,2014-03-09 15:19:00,
2014-03-09 11:21:00,82.8,66.0,30.05,North,0,7.0,11.0,63,0.00,,,0.00,meteohub,2014-03-09 15:21:00,
2014-03-09 11:22:00,82.8,66.0,30.05,North,0,7.0,11.0,63,0.00,,,0.00,meteohub,2014-03-09 15:22:00,
2014-03-09 11:24:00,83.3,66.0,30.05,North,0,6.0,11.0,62,0.00,,,0.00,meteohub,2014-03-09 15:24:00,
2014-03-09 11:25:00,83.5,66.0,30.05,North,0,9.0,11.0,62,0.00,,,0.00,meteohub,2014-03-09 15:25:00,
2014-03-09 11:26:00,83.7,66.0,30.05,North,0,8.0,11.0,62,0.00,,,0.00,meteohub,2014-03-09 15:26:00,
2014-03-09 11:28:00,83.8,66.0,30.05,NW,315,7.0,11.0,61,0.00,,,0.00,meteohub,2014-03-09 15:28:00,
2014-03-09 11:31:00,84.0,66.0,30.05,WSW,248,10.0,11.0,61,0.00,,,0.00,meteohub,2014-03-09 15:31:00,
2014-03-09 11:32:00,84.2,66.2,30.05,NE,45,9.0,11.0,60,0.00,,,0.00,meteohub,2014-03-09 15:32:00,
2014-03-09 11:33:00,84.4,66.2,30.05,NW,315,5.0,11.0,59,0.00,,,0.00,meteohub,2014-03-09 15:33:00,
2014-03-09 11:34:00,84.4,66.2,30.04,North,0,6.0,11.0,59,0.00,,,0.00,meteohub,2014-03-09 15:34:00,
2014-03-09 11:35:00,84.4,66.2,30.04,North,0,8.0,10.0,59,0.00,,,0.00,meteohub,2014-03-09 15:35:00,
2014-03-09 11:36:00,84.2,66.2,30.04,North,0,10.0,10.0,59,0.00,,,0.00,meteohub,2014-03-09 15:36:00,
2014-03-09 11:38:00,83.7,66.2,30.05,NW,315,11.0,11.0,60,0.00,,,0.00,meteohub,2014-03-09 15:38:00,
2014-03-09 11:39:00,83.5,66.2,30.04,NW,315,11.0,11.0,61,0.00,,,0.00,meteohub,2014-03-09 15:39:00,
2014-03-09 11:41:00,83.3,66.2,30.04,North,0,8.0,10.0,62,0.00,,,0.00,meteohub,2014-03-09 15:41:00,
2014-03-09 11:42:00,83.3,66.2,30.04,North,0,11.0,11.0,62,0.00,,,0.00,meteohub,2014-03-09 15:42:00,
2014-03-09 11:43:00,83.5,66.2,30.04,NNE,23,12.0,12.0,62,0.00,,,0.00,meteohub,2014-03-09 15:43:00,
2014-03-09 11:44:00,83.5,66.2,30.04,NNE,23,12.0,12.0,62,0.00,,,0.00,meteohub,2014-03-09 15:44:00,
2014-03-09 11:46:00,83.8,66.2,30.04,NW,315,8.0,12.0,61,0.00,,,0.00,meteohub,2014-03-09 15:46:00,
2014-03-09 11:47:00,83.8,66.4,30.04,West,270,10.0,12.0,62,0.00,,,0.00,meteohub,2014-03-09 15:47:00,
2014-03-09 11:49:00,84.0,66.4,30.04,NW,315,7.0,12.0,62,0.00,,,0.00,meteohub,2014-03-09 15:49:00,
2014-03-09 11:50:00,84.2,66.4,30.04,North,0,10.0,12.0,61,0.00,,,0.00,meteohub,2014-03-09 15:50:00,
2014-03-09 11:52:00,84.4,66.4,30.04,WNW,293,8.0,12.0,59,0.00,,,0.00,meteohub,2014-03-09 15:52:00,
2014-03-09 11:53:00,84.4,66.4,30.04,NW,315,8.0,12.0,59,0.00,,,0.00,meteohub,2014-03-09 15:53:00,
2014-03-09 11:55:00,84.4,66.4,30.03,NW,315,10.0,12.0,58,0.00,,,0.00,meteohub,2014-03-09 15:55:00,
2014-03-09 11:57:00,84.2,66.4,30.04,North,0,11.0,12.0,59,0.00,,,0.00,meteohub,2014-03-09 15:57:00,
2014-03-09 11:58:00,83.8,65.8,30.04,WNW,293,9.0,12.0,60,0.00,,,0.00,meteohub,2014-03-09 15:58:00,
2014-03-09 11:59:00,83.7,65.8,30.04,North,0,10.0,12.0,60,0.00,,,0.00,meteohub,2014-03-09 15:59:00,
2014-03-09 12:01:00,83.3,66.0,30.03,North,0,11.0,11.0,61,0.00,,,0.00,meteohub,2014-03-09 16:01:00,
2014-03-09 12:02:00,83.3,66.0,30.03,North,0,11.0,11.0,61,0.00,,,0.00,meteohub,2014-03-09 16:02:00,
2014-03-09 12:05:00,83.8,66.0,30.03,NW,315,8.0,11.0,62,0.00,,,0.00,meteohub,2014-03-09 16:05:00,
2014-03-09 12:07:00,84.4,66.0,30.03,NW,315,6.0,11.0,60,0.00,,,0.00,meteohub,2014-03-09 16:07:00,
2014-03-09 12:08:00,84.4,66.0,30.03,NW,315,9.0,11.0,59,0.00,,,0.00,meteohub,2014-03-09 16:08:00,
2014-03-09 12:12:00,84.2,66.0,30.03,NW,315,12.0,12.0,59,0.00,,,0.00,meteohub,2014-03-09 16:12:00,
2014-03-09 12:13:00,84.0,66.0,30.03,NW,315,10.0,11.0,61,0.00,,,0.00,meteohub,2014-03-09 16:13:00,
2014-03-09 12:14:00,84.0,66.0,30.03,NW,315,10.0,11.0,61,0.00,,,0.00,meteohub,2014-03-09 16:14:00,
2014-03-09 12:17:00,84.0,66.2,30.03,North,0,11.0,14.0,61,0.00,,,0.00,meteohub,2014-03-09 16:17:00,
2014-03-09 12:18:00,83.8,66.2,30.02,NW,315,11.0,14.0,61,0.00,,,0.00,meteohub,2014-03-09 16:18:00,
2014-03-09 12:19:00,83.8,66.2,30.02,North,0,11.0,14.0,61,0.00,,,0.00,meteohub,2014-03-09 16:19:00,
2014-03-09 12:21:00,83.8,66.2,30.02,North,0,9.0,14.0,62,0.00,,,0.00,meteohub,2014-03-09 16:21:00,
2014-03-09 12:22:00,84.0,66.2,30.03,North,0,10.0,14.0,62,0.00,,,0.00,meteohub,2014-03-09 16:22:00,
2014-03-09 12:23:00,84.2,66.2,30.03,NE,45,8.0,14.0,61,0.00,,,0.00,meteohub,2014-03-09 16:23:00,
2014-03-09 12:24:00,84.4,66.2,30.02,NNE,23,7.0,14.0,60,0.00,,,0.00,meteohub,2014-03-09 16:24:00,
2014-03-09 12:25:00,84.4,66.2,30.02,NNE,23,9.0,14.0,59,0.00,,,0.00,meteohub,2014-03-09 16:25:00,
2014-03-09 12:28:00,85.1,65.7,30.02,North,0,12.0,14.0,58,0.00,,,0.00,meteohub,2014-03-09 16:28:00,
2014-03-09 12:30:00,84.7,65.7,30.02,NW,315,12.0,13.0,58,0.00,,,0.00,meteohub,2014-03-09 16:30:00,
2014-03-09 12:31:00,84.7,65.7,30.02,North,0,8.0,13.0,58,0.00,,,0.00,meteohub,2014-03-09 16:31:00,
2014-03-09 12:33:00,84.7,65.7,30.02,NE,45,8.0,13.0,59,0.00,,,0.00,meteohub,2014-03-09 16:33:00,
2014-03-09 12:34:00,84.7,65.7,30.01,North,0,7.0,13.0,58,0.00,,,0.00,meteohub,2014-03-09 16:34:00,
2014-03-09 12:35:00,85.5,65.7,30.02,North,0,8.0,12.0,58,0.00,,,0.00,meteohub,2014-03-09 16:35:00,
2014-03-09 12:38:00,85.8,65.8,30.01,North,0,8.0,12.0,57,0.00,,,0.00,meteohub,2014-03-09 16:38:00,
2014-03-09 12:39:00,85.8,65.8,30.01,North,0,8.0,12.0,57,0.00,,,0.00,meteohub,2014-03-09 16:39:00,
2014-03-09 12:43:00,85.1,65.8,30.01,North,0,10.0,12.0,59,0.00,,,0.00,meteohub,2014-03-09 16:43:00,
2014-03-09 12:44:00,85.1,65.8,30.01,NNW,338,12.0,12.0,58,0.00,,,0.00,meteohub,2014-03-09 16:44:00,
2014-03-09 12:45:00,84.9,65.8,30.01,NW,315,11.0,13.0,58,0.00,,,0.00,meteohub,2014-03-09 16:45:00,
2014-03-09 12:46:00,84.9,65.8,30.01,NW,315,11.0,13.0,58,0.00,,,0.00,meteohub,2014-03-09 16:46:00,
2014-03-09 12:47:00,84.7,65.8,30.01,North,0,10.0,13.0,58,0.00,,,0.00,meteohub,2014-03-09 16:47:00,
2014-03-09 12:49:00,84.7,66.0,30.01,WNW,293,8.0,13.0,59,0.00,,,0.00,meteohub,2014-03-09 16:49:00,
2014-03-09 12:50:00,85.1,66.0,30.01,NE,45,11.0,13.0,58,0.00,,,0.00,meteohub,2014-03-09 16:50:00,
2014-03-09 12:52:00,85.5,66.0,30.01,NW,315,10.0,13.0,58,0.00,,,0.00,meteohub,2014-03-09 16:52:00,
2014-03-09 12:54:00,85.8,66.0,30.01,North,0,9.0,13.0,57,0.00,,,0.00,meteohub,2014-03-09 16:54:00,
2014-03-09 12:55:00,86.0,66.0,30.01,North,0,15.0,15.0,55,0.00,,,0.00,meteohub,2014-03-09 16:55:00,
2014-03-09 12:57:00,85.6,66.2,30.00,NW,315,10.0,13.0,56,0.00,,,0.00,meteohub,2014-03-09 16:57:00,
2014-03-09 12:59:00,84.7,66.2,30.01,North,0,8.0,13.0,58,0.00,,,0.00,meteohub,2014-03-09 16:59:00,
2014-03-09 13:02:00,84.9,66.2,30.01,North,0,16.0,16.0,58,0.00,,,0.00,meteohub,2014-03-09 17:02:00,
2014-03-09 13:03:00,84.7,66.2,30.01,North,0,16.0,16.0,59,0.00,,,0.00,meteohub,2014-03-09 17:03:00,
2014-03-09 13:04:00,84.7,66.2,30.01,North,0,16.0,16.0,59,0.00,,,0.00,meteohub,2014-03-09 17:04:00,
2014-03-09 13:06:00,84.4,66.4,30.01,NW,315,15.0,16.0,59,0.00,,,0.00,meteohub,2014-03-09 17:06:00,
2014-03-09 13:07:00,84.2,66.4,30.01,North,0,10.0,16.0,59,0.00,,,0.00,meteohub,2014-03-09 17:07:00,
2014-03-09 13:09:00,84.2,66.4,30.00,North,0,11.0,16.0,60,0.00,,,0.00,meteohub,2014-03-09 17:09:00,
2014-03-09 13:10:00,84.2,66.4,30.00,North,0,13.0,16.0,60,0.00,,,0.00,meteohub,2014-03-09 17:10:00,
2014-03-09 13:12:00,84.0,66.4,30.01,North,0,12.0,16.0,59,0.00,,,0.00,meteohub,2014-03-09 17:12:00,
2014-03-09 13:14:00,84.0,66.4,30.00,North,0,12.0,16.0,58,0.00,,,0.00,meteohub,2014-03-09 17:14:00,
2014-03-09 13:15:00,84.0,66.6,30.01,North,0,16.0,16.0,58,0.00,,,0.00,meteohub,2014-03-09 17:15:00,
2014-03-09 13:17:00,83.7,66.6,30.00,North,0,12.0,16.0,58,0.00,,,0.00,meteohub,2014-03-09 17:17:00,
2014-03-09 13:18:00,83.7,66.6,30.00,North,0,12.0,16.0,58,0.00,,,0.00,meteohub,2014-03-09 17:18:00,
2014-03-09 13:20:00,83.8,66.6,30.00,WNW,293,11.0,16.0,58,0.00,,,0.00,meteohub,2014-03-09 17:20:00,
2014-03-09 13:21:00,84.0,66.6,30.00,North,0,9.0,16.0,58,0.00,,,0.00,meteohub,2014-03-09 17:21:00,
2014-03-09 13:22:00,84.2,66.6,30.00,NW,315,13.0,16.0,56,0.00,,,0.00,meteohub,2014-03-09 17:22:00,
2014-03-09 13:23:00,84.4,66.6,30.00,NW,315,17.0,17.0,57,0.00,,,0.00,meteohub,2014-03-09 17:23:00,
2014-03-09 13:25:00,84.4,66.7,30.00,NNE,23,12.0,17.0,55,0.00,,,0.00,meteohub,2014-03-09 17:25:00,
2014-03-09 13:26:00,84.4,66.7,30.00,NW,315,10.0,17.0,55,0.00,,,0.00,meteohub,2014-03-09 17:26:00,
2014-03-09 13:27:00,84.4,66.7,30.00,NE,45,8.0,17.0,56,0.00,,,0.00,meteohub,2014-03-09 17:27:00,
2014-03-09 13:29:00,84.7,66.7,30.00,WNW,293,11.0,17.0,56,0.00,,,0.00,meteohub,2014-03-09 17:29:00,
2014-03-09 13:32:00,84.9,66.7,30.00,North,0,13.0,17.0,57,0.00,,,0.00,meteohub,2014-03-09 17:32:00,
2014-03-09 13:34:00,84.9,66.9,30.00,North,0,15.0,17.0,55,0.00,,,0.00,meteohub,2014-03-09 17:34:00,
2014-03-09 13:35:00,84.7,66.9,30.00,North,0,15.0,17.0,54,0.00,,,0.00,meteohub,2014-03-09 17:35:00,
2014-03-09 13:36:00,84.7,66.9,30.00,North,0,11.0,17.0,54,0.00,,,0.00,meteohub,2014-03-09 17:36:00,
2014-03-09 13:37:00,84.4,66.9,29.99,North,0,16.0,17.0,56,0.00,,,0.00,meteohub,2014-03-09 17:37:00,
2014-03-09 13:38:00,84.4,66.9,29.99,NW,315,15.0,17.0,57,0.00,,,0.00,meteohub,2014-03-09 17:38:00,
2014-03-09 13:40:00,83.8,66.9,30.00,North,0,14.0,18.0,59,0.00,,,0.00,meteohub,2014-03-09 17:40:00,
2014-03-09 13:42:00,83.8,66.9,30.00,NW,315,15.0,18.0,59,0.00,,,0.00,meteohub,2014-03-09 17:42:00,
2014-03-09 13:43:00,83.7,67.1,30.00,NW,315,14.0,18.0,60,0.00,,,0.00,meteohub,2014-03-09 17:43:00,
2014-03-09 13:47:00,83.5,67.1,29.99,North,0,11.0,18.0,62,0.00,,,0.00,meteohub,2014-03-09 17:47:00,
2014-03-09 13:49:00,83.8,67.1,29.99,North,0,11.0,18.0,61,0.00,,,0.00,meteohub,2014-03-09 17:49:00,
2014-03-09 13:52:00,84.0,67.1,29.99,North,0,11.0,18.0,62,0.00,,,0.00,meteohub,2014-03-09 17:52:00,
2014-03-09 13:54:00,84.4,67.1,29.99,WSW,248,14.0,18.0,62,0.00,,,0.00,meteohub,2014-03-09 17:54:00,
2014-03-09 13:55:00,84.2,67.1,29.99,NW,315,17.0,17.0,58,0.00,,,0.00,meteohub,2014-03-09 17:55:00,
2014-03-09 13:56:00,84.4,67.1,29.99,North,0,19.0,19.0,60,0.00,,,0.00,meteohub,2014-03-09 17:56:00,
2014-03-09 13:58:00,84.0,67.1,29.99,North,0,15.0,15.0,61,0.00,,,0.00,meteohub,2014-03-09 17:58:00,
2014-03-09 14:01:00,83.8,67.1,29.99,North,0,8.0,19.0,59,0.00,,,0.00,meteohub,2014-03-09 18:01:00,
2014-03-09 14:03:00,84.0,67.1,29.99,North,0,10.0,19.0,60,0.00,,,0.00,meteohub,2014-03-09 18:03:00,
2014-03-09 14:06:00,84.0,66.9,29.99,North,0,11.0,19.0,63,0.00,,,0.00,meteohub,2014-03-09 18:06:00,
2014-03-09 14:07:00,84.0,66.9,29.99,NE,45,10.0,19.0,59,0.00,,,0.00,meteohub,2014-03-09 18:07:00,
2014-03-09 14:10:00,84.7,66.9,29.99,North,0,15.0,19.0,57,0.00,,,0.00,meteohub,2014-03-09 18:10:00,
2014-03-09 14:11:00,84.7,66.9,29.99,North,0,14.0,19.0,57,0.00,,,0.00,meteohub,2014-03-09 18:11:00,
2014-03-09 14:13:00,84.2,66.9,29.99,North,0,14.0,19.0,60,0.00,,,0.00,meteohub,2014-03-09 18:13:00,
2014-03-09 14:16:00,83.8,67.1,29.98,NNE,23,11.0,15.0,59,0.00,,,0.00,meteohub,2014-03-09 18:16:00,
2014-03-09 14:17:00,83.8,67.1,29.98,North,0,9.0,15.0,61,0.00,,,0.00,meteohub,2014-03-09 18:17:00,
2014-03-09 14:18:00,83.8,67.3,29.98,North,0,14.0,15.0,62,0.00,,,0.00,meteohub,2014-03-09 18:18:00,
2014-03-09 14:20:00,84.0,67.3,29.98,North,0,15.0,17.0,60,0.00,,,0.00,meteohub,2014-03-09 18:20:00,
2014-03-09 14:21:00,84.0,67.3,29.98,North,0,15.0,17.0,60,0.00,,,0.00,meteohub,2014-03-09 18:21:00,
2014-03-09 14:22:00,83.7,67.3,29.98,North,0,16.0,17.0,58,0.00,,,0.00,meteohub,2014-03-09 18:22:00,
2014-03-09 14:23:00,83.3,67.5,29.98,NW,315,16.0,17.0,59,0.00,,,0.00,meteohub,2014-03-09 18:23:00,
2014-03-09 14:25:00,83.5,66.7,29.98,North,0,15.0,17.0,59,0.00,,,0.00,meteohub,2014-03-09 18:25:00,
2014-03-09 14:27:00,83.3,66.7,29.98,NW,315,14.0,17.0,62,0.00,,,0.00,meteohub,2014-03-09 18:27:00,
2014-03-09 14:28:00,83.3,66.7,29.98,North,0,15.0,17.0,65,0.00,,,0.00,meteohub,2014-03-09 18:28:00,
2014-03-09 14:29:00,83.3,67.5,29.98,NE,45,12.0,17.0,65,0.00,,,0.00,meteohub,2014-03-09 18:29:00,
2014-03-09 14:32:00,83.8,67.6,29.98,NW,315,11.0,17.0,61,0.00,,,0.00,meteohub,2014-03-09 18:32:00,
2014-03-09 14:33:00,83.8,66.7,29.98,North,0,10.0,17.0,61,0.00,,,0.00,meteohub,2014-03-09 18:33:00,
2014-03-09 14:34:00,84.0,67.6,29.98,North,0,15.0,17.0,60,0.00,,,0.00,meteohub,2014-03-09 18:34:00,
2014-03-09 14:35:00,83.8,66.7,29.98,North,0,11.0,17.0,61,0.00,,,0.00,meteohub,2014-03-09 18:35:00,
2014-03-09 14:36:00,83.8,66.9,29.98,North,0,10.0,17.0,64,0.00,,,0.00,meteohub,2014-03-09 18:36:00,
2014-03-09 14:39:00,83.8,67.1,29.98,North,0,14.0,17.0,62,0.00,,,0.00,meteohub,2014-03-09 18:39:00,
2014-03-09 14:40:00,83.7,67.1,29.98,North,0,17.0,17.0,61,0.00,,,0.00,meteohub,2014-03-09 18:40:00,
2014-03-09 14:42:00,83.1,66.9,29.98,North,0,14.0,15.0,64,0.00,,,0.00,meteohub,2014-03-09 18:42:00,
2014-03-09 14:44:00,82.9,67.3,29.97,North,0,12.0,15.0,65,0.00,,,0.00,meteohub,2014-03-09 18:44:00,
2014-03-09 14:45:00,82.8,66.9,29.97,NNW,338,11.0,15.0,65,0.00,,,0.00,meteohub,2014-03-09 18:45:00,
2014-03-09 14:47:00,83.3,67.1,29.98,North,0,11.0,17.0,63,0.00,,,0.00,meteohub,2014-03-09 18:47:00,
2014-03-09 14:50:00,83.3,67.1,29.97,North,0,13.0,17.0,66,0.00,,,0.00,meteohub,2014-03-09 18:50:00,
2014-03-09 14:51:00,83.5,67.1,29.97,NW,315,17.0,17.0,66,0.00,,,0.00,meteohub,2014-03-09 18:51:00,
2014-03-09 14:52:00,83.3,67.1,29.97,NW,315,13.0,17.0,65,0.00,,,0.00,meteohub,2014-03-09 18:52:00,
2014-03-09 14:56:00,83.7,67.3,29.97,ENE,68,15.0,17.0,60,0.00,,,0.00,meteohub,2014-03-09 18:56:00,
2014-03-09 14:57:00,83.8,67.3,29.97,ENE,68,15.0,17.0,60,0.00,,,0.00,meteohub,2014-03-09 18:57:00,
2014-03-09 14:58:00,83.8,67.3,29.97,NNE,23,10.0,17.0,60,0.00,,,0.00,meteohub,2014-03-09 18:58:00,
2014-03-09 14:59:00,84.0,67.3,29.97,NW,315,14.0,17.0,59,0.00,,,0.00,meteohub,2014-03-09 18:59:00,
2014-03-09 15:00:00,84.0,67.3,29.97,North,0,11.0,17.0,61,0.00,,,0.00,meteohub,2014-03-09 19:00:00,
2014-03-09 15:02:00,83.8,67.3,29.97,North,0,13.0,17.0,62,0.00,,,0.00,meteohub,2014-03-09 19:02:00,
2014-03-09 15:03:00,83.7,67.5,29.97,NW,315,12.0,17.0,61,0.00,,,0.00,meteohub,2014-03-09 19:03:00,
2014-03-09 15:05:00,83.7,67.6,29.97,North,0,11.0,17.0,61,0.00,,,0.00,meteohub,2014-03-09 19:05:00,
2014-03-09 15:07:00,83.8,67.6,29.97,North,0,11.0,17.0,58,0.00,,,0.00,meteohub,2014-03-09 19:07:00,
2014-03-09 15:08:00,83.8,67.5,29.97,NE,45,10.0,17.0,58,0.00,,,0.00,meteohub,2014-03-09 19:08:00,
2014-03-09 15:11:00,84.4,67.5,29.97,North,0,11.0,15.0,60,0.00,,,0.00,meteohub,2014-03-09 19:11:00,
2014-03-09 15:12:00,84.4,67.5,29.97,North,0,11.0,15.0,60,0.00,,,0.00,meteohub,2014-03-09 19:12:00,
2014-03-09 15:13:00,84.4,67.8,29.97,North,0,16.0,16.0,61,0.00,,,0.00,meteohub,2014-03-09 19:13:00,
2014-03-09 15:14:00,84.2,67.6,29.97,SE,135,11.0,15.0,62,0.00,,,0.00,meteohub,2014-03-09 19:14:00,
2014-03-09 15:15:00,84.2,67.6,29.96,North,0,11.0,16.0,63,0.00,,,0.00,meteohub,2014-03-09 19:15:00,
2014-03-09 15:19:00,84.7,67.6,29.96,NW,315,8.0,16.0,61,0.00,,,0.00,meteohub,2014-03-09 19:19:00,
2014-03-09 15:20:00,84.7,67.6,29.97,North,0,13.0,16.0,61,0.00,,,0.00,meteohub,2014-03-09 19:20:00,
2014-03-09 15:21:00,84.9,67.6,29.97,North,0,15.0,16.0,63,0.00,,,0.00,meteohub,2014-03-09 19:21:00,
2014-03-09 15:22:00,84.7,67.6,29.97,North,0,15.0,16.0,61,0.00,,,0.00,meteohub,2014-03-09 19:22:00,
2014-03-09 15:25:00,83.8,67.5,29.96,North,0,15.0,16.0,64,0.00,,,0.00,meteohub,2014-03-09 19:25:00,
2014-03-09 15:26:00,83.5,67.5,29.96,WNW,293,13.0,16.0,66,0.00,,,0.00,meteohub,2014-03-09 19:26:00,
2014-03-09 15:27:00,83.5,67.6,29.96,NW,315,11.0,16.0,66,0.00,,,0.00,meteohub,2014-03-09 19:27:00,
2014-03-09 15:29:00,83.8,67.6,29.96,North,0,15.0,16.0,66,0.00,,,0.00,meteohub,2014-03-09 19:29:00,
2014-03-09 15:31:00,83.5,67.6,29.96,NNE,23,13.0,17.0,66,0.00,,,0.00,meteohub,2014-03-09 19:31:00,
2014-03-09 15:32:00,83.5,67.6,29.97,NNE,23,8.0,17.0,67,0.00,,,0.00,meteohub,2014-03-09 19:32:00,
2014-03-09 15:33:00,84.0,67.6,29.97,North,0,14.0,17.0,67,0.00,,,0.00,meteohub,2014-03-09 19:33:00,
2014-03-09 15:38:00,84.2,67.5,29.96,NE,45,13.0,19.0,65,0.00,,,0.00,meteohub,2014-03-09 19:38:00,
2014-03-09 15:39:00,84.2,67.8,29.97,East,90,11.0,19.0,64,0.00,,,0.00,meteohub,2014-03-09 19:39:00,
2014-03-09 15:40:00,84.2,67.5,29.97,NE,45,11.0,19.0,63,0.00,,,0.00,meteohub,2014-03-09 19:40:00,
2014-03-09 15:42:00,83.7,67.6,29.97,North,0,15.0,19.0,66,0.00,,,0.00,meteohub,2014-03-09 19:42:00,
2014-03-09 15:45:00,83.7,67.8,29.96,NE,45,14.0,19.0,67,0.00,,,0.00,meteohub,2014-03-09 19:45:00,
2014-03-09 15:46:00,83.7,67.6,29.96,NE,45,11.0,19.0,67,0.00,,,0.00,meteohub,2014-03-09 19:46:00,
2014-03-09 15:47:00,83.8,68.0,29.96,North,0,15.0,19.0,67,0.00,,,0.00,meteohub,2014-03-09 19:47:00,
2014-03-09 15:50:00,84.0,68.0,29.96,NW,315,12.0,15.0,67,0.00,,,0.00,meteohub,2014-03-09 19:50:00,
2014-03-09 15:51:00,84.0,68.0,29.96,NW,315,12.0,15.0,67,0.00,,,0.00,meteohub,2014-03-09 19:51:00,
2014-03-09 15:52:00,83.8,68.0,29.96,WNW,293,7.0,15.0,68,0.00,,,0.00,meteohub,2014-03-09 19:52:00,
2014-03-09 15:53:00,83.8,68.0,29.96,North,0,11.0,15.0,68,0.00,,,0.00,meteohub,2014-03-09 19:53:00,
2014-03-09 15:56:00,84.4,67.8,29.96,NE,45,10.0,15.0,65,0.00,,,0.00,meteohub,2014-03-09 19:56:00,
2014-03-09 15:57:00,84.7,67.8,29.96,North,0,8.0,15.0,65,0.00,,,0.00,meteohub,2014-03-09 19:57:00,
2014-03-09 15:58:00,84.4,68.0,29.96,North,0,15.0,15.0,66,0.00,,,0.00,meteohub,2014-03-09 19:58:00,
2014-03-09 15:59:00,84.4,68.0,29.96,North,0,15.0,15.0,66,0.00,,,0.00,meteohub,2014-03-09 19:59:00,
2014-03-09 16:00:00,83.7,68.0,29.96,North,0,11.0,15.0,67,0.00,,,0.00,meteohub,2014-03-09 20:00:00,
2014-03-09 16:02:00,83.3,68.0,29.96,NW,315,10.0,15.0,67,0.00,,,0.00,meteohub,2014-03-09 20:02:00,
2014-03-09 16:04:00,83.3,68.0,29.96,North,0,8.0,15.0,67,0.00,,,0.00,meteohub,2014-03-09 20:04:00,
2014-03-09 16:06:00,83.3,68.0,29.96,NE,45,9.0,15.0,67,0.00,,,0.00,meteohub,2014-03-09 20:06:00,
2014-03-09 16:07:00,83.5,68.0,29.96,NE,45,8.0,15.0,67,0.00,,,0.00,meteohub,2014-03-09 20:07:00,
2014-03-09 16:08:00,83.5,68.0,29.96,NW,315,11.0,15.0,67,0.00,,,0.00,meteohub,2014-03-09 20:08:00,
2014-03-09 16:09:00,83.7,68.0,29.96,NW,315,11.0,15.0,67,0.00,,,0.00,meteohub,2014-03-09 20:09:00,
2014-03-09 16:12:00,84.2,68.0,29.96,NE,45,10.0,15.0,65,0.00,,,0.00,meteohub,2014-03-09 20:12:00,
2014-03-09 16:13:00,84.4,68.0,29.96,NE,45,8.0,15.0,65,0.00,,,0.00,meteohub,2014-03-09 20:13:00,
2014-03-09 16:14:00,84.4,68.0,29.96,NE,45,10.0,15.0,64,0.00,,,0.00,meteohub,2014-03-09 20:14:00,
2014-03-09 16:15:00,84.4,68.0,29.96,North,0,8.0,15.0,64,0.00,,,0.00,meteohub,2014-03-09 20:15:00,
2014-03-09 16:17:00,84.0,68.2,29.96,North,0,5.0,14.0,65,0.00,,,0.00,meteohub,2014-03-09 20:17:00,
2014-03-09 16:18:00,84.0,68.2,29.96,North,0,5.0,14.0,65,0.00,,,0.00,meteohub,2014-03-09 20:18:00,
2014-03-09 16:20:00,84.0,68.2,29.96,North,0,8.0,14.0,66,0.00,,,0.00,meteohub,2014-03-09 20:20:00,
2014-03-09 16:21:00,83.8,68.2,29.96,North,0,7.0,11.0,66,0.00,,,0.00,meteohub,2014-03-09 20:21:00,
2014-03-09 16:22:00,83.8,68.2,29.96,NNE,23,8.0,11.0,66,0.00,,,0.00,meteohub,2014-03-09 20:22:00,
2014-03-09 16:25:00,83.7,68.2,29.96,NE,45,11.0,11.0,66,0.00,,,0.00,meteohub,2014-03-09 20:25:00,
2014-03-09 16:27:00,83.1,68.4,29.96,North,0,12.0,12.0,66,0.00,,,0.00,meteohub,2014-03-09 20:27:00,
2014-03-09 16:28:00,82.9,68.4,29.96,NW,315,10.0,11.0,66,0.00,,,0.00,meteohub,2014-03-09 20:28:00,
2014-03-09 16:29:00,82.8,68.4,29.96,North,0,10.0,11.0,67,0.00,,,0.00,meteohub,2014-03-09 20:29:00,
2014-03-09 16:30:00,82.8,68.4,29.96,North,0,10.0,12.0,67,0.00,,,0.00,meteohub,2014-03-09 20:30:00,
2014-03-09 16:32:00,83.1,68.4,29.96,North,0,11.0,12.0,67,0.00,,,0.00,meteohub,2014-03-09 20:32:00,
2014-03-09 16:33:00,83.3,68.4,29.96,WNW,293,10.0,12.0,67,0.00,,,0.00,meteohub,2014-03-09 20:33:00,
2014-03-09 16:36:00,83.7,68.4,29.96,NE,45,11.0,12.0,67,0.00,,,0.00,meteohub,2014-03-09 20:36:00,
2014-03-09 16:37:00,83.7,68.5,29.96,NE,45,10.0,12.0,67,0.00,,,0.00,meteohub,2014-03-09 20:37:00,
2014-03-09 16:38:00,83.7,68.5,29.96,North,0,6.0,12.0,67,0.00,,,0.00,meteohub,2014-03-09 20:38:00,
2014-03-09 16:39:00,84.2,68.5,29.96,NNE,23,8.0,12.0,65,0.00,,,0.00,meteohub,2014-03-09 20:39:00,
2014-03-09 16:40:00,84.4,68.5,29.96,NE,45,9.0,12.0,64,0.00,,,0.00,meteohub,2014-03-09 20:40:00,
2014-03-09 16:45:00,84.9,68.5,29.96,NW,315,8.0,12.0,61,0.00,,,0.00,meteohub,2014-03-09 20:45:00,
2014-03-09 16:47:00,84.4,68.7,29.97,North,0,11.0,12.0,62,0.00,,,0.00,meteohub,2014-03-09 20:47:00,
2014-03-09 16:49:00,83.7,68.7,29.96,North,0,8.0,12.0,65,0.00,,,0.00,meteohub,2014-03-09 20:49:00,
2014-03-09 16:50:00,83.7,68.7,29.97,East,90,8.0,12.0,64,0.00,,,0.00,meteohub,2014-03-09 20:50:00,
2014-03-09 16:52:00,83.7,68.7,29.96,North,0,10.0,12.0,64,0.00,,,0.00,meteohub,2014-03-09 20:52:00,
2014-03-09 16:53:00,83.8,68.7,29.97,NE,45,7.0,12.0,63,0.00,,,0.00,meteohub,2014-03-09 20:53:00,
2014-03-09 16:54:00,83.8,68.7,29.97,NE,45,7.0,12.0,64,0.00,,,0.00,meteohub,2014-03-09 20:54:00,
2014-03-09 16:57:00,83.5,68.9,29.97,WNW,293,11.0,11.0,65,0.00,,,0.00,meteohub,2014-03-09 20:57:00,
2014-03-09 16:58:00,83.3,68.9,29.97,NNE,23,10.0,11.0,65,0.00,,,0.00,meteohub,2014-03-09 20:58:00,
2014-03-09 17:00:00,82.8,68.9,29.97,NW,315,8.0,11.0,65,0.00,,,0.00,meteohub,2014-03-09 21:00:00,
2014-03-09 17:01:00,82.4,68.9,29.97,North,0,8.0,11.0,65,0.00,,,0.00,meteohub,2014-03-09 21:01:00,
2014-03-09 17:02:00,82.4,68.9,29.97,NE,45,9.0,11.0,66,0.00,,,0.00,meteohub,2014-03-09 21:02:00,
2014-03-09 17:03:00,82.4,68.9,29.97,North,0,9.0,11.0,66,0.00,,,0.00,meteohub,2014-03-09 21:03:00,
2014-03-09 17:07:00,83.3,68.9,29.97,North,0,9.0,11.0,66,0.00,,,0.00,meteohub,2014-03-09 21:07:00,
2014-03-09 17:08:00,83.7,68.5,29.97,North,0,8.0,11.0,65,0.00,,,0.00,meteohub,2014-03-09 21:08:00,
2014-03-09 17:09:00,83.8,68.5,29.97,NNE,23,8.0,11.0,65,0.00,,,0.00,meteohub,2014-03-09 21:09:00,
2014-03-09 17:12:00,84.4,68.5,29.98,NE,45,11.0,11.0,63,0.00,,,0.00,meteohub,2014-03-09 21:12:00,
2014-03-09 17:13:00,84.2,68.5,29.97,North,0,7.0,11.0,62,0.00,,,0.00,meteohub,2014-03-09 21:13:00,
2014-03-09 17:14:00,84.2,68.5,29.97,North,0,7.0,11.0,64,0.00,,,0.00,meteohub,2014-03-09 21:14:00,
2014-03-09 17:16:00,84.4,68.5,29.98,North,0,8.0,11.0,62,0.00,,,0.00,meteohub,2014-03-09 21:16:00,
2014-03-09 17:18:00,84.4,68.5,29.97,North,0,7.0,11.0,63,0.00,,,0.00,meteohub,2014-03-09 21:18:00,
2014-03-09 17:19:00,84.4,68.5,29.98,North,0,8.0,11.0,63,0.00,,,0.00,meteohub,2014-03-09 21:19:00,
2014-03-09 17:20:00,84.7,68.7,29.98,NNE,23,8.0,11.0,62,0.00,,,0.00,meteohub,2014-03-09 21:20:00,
2014-03-09 17:23:00,84.7,68.7,29.98,NW,315,8.0,11.0,60,0.00,,,0.00,meteohub,2014-03-09 21:23:00,
2014-03-09 17:24:00,84.4,68.7,29.98,East,90,8.0,11.0,60,0.00,,,0.00,meteohub,2014-03-09 21:24:00,
2014-03-09 17:25:00,84.2,68.7,29.98,North,0,7.0,11.0,61,0.00,,,0.00,meteohub,2014-03-09 21:25:00,
2014-03-09 17:26:00,84.0,68.7,29.98,WNW,293,8.0,11.0,63,0.00,,,0.00,meteohub,2014-03-09 21:26:00,
2014-03-09 17:27:00,83.8,68.7,29.98,NW,315,11.0,11.0,64,0.00,,,0.00,meteohub,2014-03-09 21:27:00,
2014-03-09 17:28:00,83.5,68.7,29.97,North,0,6.0,11.0,63,0.00,,,0.00,meteohub,2014-03-09 21:28:00,
2014-03-09 17:32:00,83.5,68.7,29.98,North,0,8.0,11.0,64,0.00,,,0.00,meteohub,2014-03-09 21:32:00,
2014-03-09 17:33:00,83.5,68.9,29.98,North,0,6.0,11.0,65,0.00,,,0.00,meteohub,2014-03-09 21:33:00,
2014-03-09 17:34:00,83.7,68.9,29.98,NW,315,7.0,11.0,64,0.00,,,0.00,meteohub,2014-03-09 21:34:00,
2014-03-09 17:35:00,83.7,68.9,29.98,North,0,8.0,11.0,63,0.00,,,0.00,meteohub,2014-03-09 21:35:00,
2014-03-09 17:36:00,83.7,68.9,29.98,NW,315,11.0,11.0,63,0.00,,,0.00,meteohub,2014-03-09 21:36:00,
2014-03-09 17:37:00,83.7,68.9,29.98,NNE,23,11.0,11.0,62,0.00,,,0.00,meteohub,2014-03-09 21:37:00,
2014-03-09 17:38:00,83.5,68.9,29.98,NE,45,9.0,11.0,62,0.00,,,0.00,meteohub,2014-03-09 21:38:00,
2014-03-09 17:41:00,83.3,68.9,29.98,NE,45,11.0,11.0,63,0.00,,,0.00,meteohub,2014-03-09 21:41:00,
2014-03-09 17:42:00,83.1,68.9,29.98,NE,45,8.0,11.0,62,0.00,,,0.00,meteohub,2014-03-09 21:42:00,
2014-03-09 17:43:00,82.9,68.9,29.98,North,0,6.0,11.0,62,0.00,,,0.00,meteohub,2014-03-09 21:43:00,
2014-03-09 17:44:00,82.9,68.9,29.98,North,0,8.0,11.0,62,0.00,,,0.00,meteohub,2014-03-09 21:44:00,
2014-03-09 17:47:00,82.6,68.9,29.98,NW,315,4.0,11.0,65,0.00,,,0.00,meteohub,2014-03-09 21:47:00,
2014-03-09 17:48:00,82.8,68.9,29.98,North,0,8.0,11.0,65,0.00,,,0.00,meteohub,2014-03-09 21:48:00,
2014-03-09 17:52:00,82.6,68.9,29.98,NE,45,11.0,11.0,67,0.00,,,0.00,meteohub,2014-03-09 21:52:00,
2014-03-09 17:53:00,82.2,68.9,29.98,NE,45,10.0,11.0,68,0.00,,,0.00,meteohub,2014-03-09 21:53:00,
2014-03-09 17:54:00,82.2,68.9,29.98,East,90,8.0,11.0,68,0.00,,,0.00,meteohub,2014-03-09 21:54:00,
2014-03-09 17:55:00,82.2,68.9,29.98,East,90,8.0,11.0,68,0.00,,,0.00,meteohub,2014-03-09 21:55:00,
2014-03-09 17:56:00,82.0,68.9,29.98,NE,45,8.0,11.0,66,0.00,,,0.00,meteohub,2014-03-09 21:56:00,
2014-03-09 17:59:00,82.0,68.9,29.98,North,0,9.0,11.0,67,0.00,,,0.00,meteohub,2014-03-09 21:59:00,
2014-03-09 18:01:00,82.0,68.9,29.98,North,0,8.0,11.0,68,0.00,,,0.00,meteohub,2014-03-09 22:01:00,
2014-03-09 18:02:00,82.0,68.9,29.98,North,0,8.0,11.0,68,0.00,,,0.00,meteohub,2014-03-09 22:02:00,
2014-03-09 18:04:00,82.0,69.1,29.98,North,0,8.0,11.0,68,0.00,,,0.00,meteohub,2014-03-09 22:04:00,
2014-03-09 18:05:00,81.9,69.1,29.98,North,0,11.0,11.0,68,0.00,,,0.00,meteohub,2014-03-09 22:05:00,
2014-03-09 18:06:00,81.7,69.1,29.98,North,0,5.0,11.0,70,0.00,,,0.00,meteohub,2014-03-09 22:06:00,
2014-03-09 18:07:00,81.7,69.1,29.98,North,0,8.0,11.0,70,0.00,,,0.00,meteohub,2014-03-09 22:07:00,
2014-03-09 18:08:00,81.7,69.1,29.98,North,0,9.0,11.0,70,0.00,,,0.00,meteohub,2014-03-09 22:08:00,
2014-03-09 18:09:00,81.5,69.1,29.98,North,0,8.0,11.0,70,0.00,,,0.00,meteohub,2014-03-09 22:09:00,
2014-03-09 18:11:00,81.3,69.1,29.98,North,0,6.0,12.0,70,0.00,,,0.00,meteohub,2014-03-09 22:11:00,
2014-03-09 18:12:00,81.3,69.1,29.98,North,0,6.0,12.0,70,0.00,,,0.00,meteohub,2014-03-09 22:12:00,
2014-03-09 18:13:00,81.3,69.1,29.98,North,0,8.0,12.0,71,0.00,,,0.00,meteohub,2014-03-09 22:13:00,
2014-03-09 18:14:00,81.3,69.1,29.98,NNE,23,9.0,12.0,71,0.00,,,0.00,meteohub,2014-03-09 22:14:00,
2014-03-09 18:15:00,81.1,69.1,29.98,North,0,8.0,12.0,71,0.00,,,0.00,meteohub,2014-03-09 22:15:00,
2014-03-09 18:17:00,80.8,69.3,29.98,North,0,7.0,12.0,72,0.00,,,0.00,meteohub,2014-03-09 22:17:00,
2014-03-09 18:19:00,80.8,69.3,29.98,East,90,5.0,12.0,72,0.00,,,0.00,meteohub,2014-03-09 22:19:00,
2014-03-09 18:20:00,80.8,69.3,29.98,NE,45,7.0,12.0,72,0.00,,,0.00,meteohub,2014-03-09 22:20:00,
2014-03-09 18:22:00,80.6,69.3,29.98,East,90,8.0,12.0,71,0.00,,,0.00,meteohub,2014-03-09 22:22:00,
2014-03-09 18:23:00,80.6,69.3,29.98,East,90,8.0,12.0,71,0.00,,,0.00,meteohub,2014-03-09 22:23:00,
2014-03-09 18:25:00,80.2,69.3,29.98,North,0,9.0,11.0,73,0.00,,,0.00,meteohub,2014-03-09 22:25:00,
2014-03-09 18:26:00,80.2,69.3,29.98,North,0,11.0,11.0,73,0.00,,,0.00,meteohub,2014-03-09 22:26:00,
2014-03-09 18:28:00,80.1,69.3,29.98,NE,45,8.0,11.0,74,0.00,,,0.00,meteohub,2014-03-09 22:28:00,
2014-03-09 18:29:00,80.1,69.3,29.98,East,90,8.0,11.0,74,0.00,,,0.00,meteohub,2014-03-09 22:29:00,
2014-03-09 18:30:00,80.1,69.3,29.98,NE,45,6.0,11.0,74,0.00,,,0.00,meteohub,2014-03-09 22:30:00,
2014-03-09 18:34:00,80.1,69.3,29.98,North,0,9.0,11.0,74,0.00,,,0.00,meteohub,2014-03-09 22:34:00,
2014-03-09 18:35:00,79.9,69.3,29.99,NW,315,5.0,11.0,74,0.00,,,0.00,meteohub,2014-03-09 22:35:00,
2014-03-09 18:36:00,79.9,69.3,29.98,NE,45,4.0,11.0,75,0.00,,,0.00,meteohub,2014-03-09 22:36:00,
2014-03-09 18:37:00,79.9,69.3,29.98,NE,45,6.0,11.0,75,0.00,,,0.00,meteohub,2014-03-09 22:37:00,
2014-03-09 18:39:00,79.9,69.4,29.98,NNE,23,6.0,11.0,75,0.00,,,0.00,meteohub,2014-03-09 22:39:00,
2014-03-09 18:41:00,79.9,69.4,29.98,North,0,8.0,11.0,75,0.00,,,0.00,meteohub,2014-03-09 22:41:00,
2014-03-09 18:43:00,79.7,69.4,29.99,North,0,8.0,11.0,75,0.00,,,0.00,meteohub,2014-03-09 22:43:00,
2014-03-09 18:45:00,79.5,69.4,29.99,NW,315,6.0,11.0,75,0.00,,,0.00,meteohub,2014-03-09 22:45:00,
2014-03-09 18:46:00,79.5,69.4,29.99,North,0,9.0,10.0,75,0.00,,,0.00,meteohub,2014-03-09 22:46:00,
2014-03-09 18:47:00,79.5,69.4,29.98,North,0,7.0,10.0,75,0.00,,,0.00,meteohub,2014-03-09 22:47:00,
2014-03-09 18:50:00,79.5,69.6,29.99,NE,45,7.0,10.0,76,0.00,,,0.00,meteohub,2014-03-09 22:50:00,
2014-03-09 18:51:00,79.5,69.4,29.99,NE,45,9.0,9.0,76,0.00,,,0.00,meteohub,2014-03-09 22:51:00,
2014-03-09 18:52:00,79.5,69.4,29.99,NNE,23,8.0,9.0,76,0.00,,,0.00,meteohub,2014-03-09 22:52:00,
2014-03-09 18:55:00,79.5,69.4,29.99,North,0,7.0,9.0,77,0.00,,,0.00,meteohub,2014-03-09 22:55:00,
2014-03-09 18:56:00,79.3,69.4,29.99,NE,45,6.0,9.0,77,0.00,,,0.00,meteohub,2014-03-09 22:56:00,
2014-03-09 18:57:00,79.5,69.4,29.99,NNE,23,7.0,9.0,77,0.00,,,0.00,meteohub,2014-03-09 22:57:00,
2014-03-09 18:59:00,79.3,69.4,29.99,NW,315,6.0,9.0,77,0.00,,,0.00,meteohub,2014-03-09 22:59:00,
2014-03-09 19:00:00,79.5,69.4,29.99,North,0,6.0,9.0,77,0.00,,,0.00,meteohub,2014-03-09 23:00:00,
2014-03-09 19:02:00,79.5,69.4,29.99,NW,315,6.0,9.0,77,0.00,,,0.00,meteohub,2014-03-09 23:02:00,
2014-03-09 19:03:00,79.5,69.4,29.99,North,0,9.0,9.0,78,0.00,,,0.00,meteohub,2014-03-09 23:03:00,
2014-03-09 19:05:00,79.5,69.4,29.99,North,0,6.0,9.0,78,0.00,,,0.00,meteohub,2014-03-09 23:05:00,
2014-03-09 19:07:00,79.5,69.4,29.99,NNW,338,6.0,9.0,78,0.00,,,0.00,meteohub,2014-03-09 23:07:00,
2014-03-09 19:08:00,79.5,69.4,29.99,NNW,338,9.0,9.0,78,0.00,,,0.00,meteohub,2014-03-09 23:08:00,
2014-03-09 19:09:00,79.5,69.4,29.99,North,0,5.0,9.0,78,0.00,,,0.00,meteohub,2014-03-09 23:09:00,
2014-03-09 19:12:00,79.2,69.4,29.99,North,0,6.0,10.0,78,0.00,,,0.00,meteohub,2014-03-09 23:12:00,
2014-03-09 19:13:00,79.2,69.4,29.99,North,0,7.0,10.0,79,0.00,,,0.00,meteohub,2014-03-09 23:13:00,
2014-03-09 19:15:00,79.2,69.8,30.00,North,0,9.0,10.0,79,0.00,,,0.00,meteohub,2014-03-09 23:15:00,
2014-03-09 19:16:00,79.3,69.4,30.00,North,0,6.0,10.0,78,0.00,,,0.00,meteohub,2014-03-09 23:16:00,
2014-03-09 19:17:00,79.2,69.4,29.99,North,0,8.0,10.0,78,0.00,,,0.00,meteohub,2014-03-09 23:17:00,
2014-03-09 19:18:00,79.2,69.8,30.00,NNE,23,9.0,10.0,78,0.00,,,0.00,meteohub,2014-03-09 23:18:00,
2014-03-09 19:21:00,79.2,69.4,30.00,ENE,68,5.0,10.0,78,0.00,,,0.00,meteohub,2014-03-09 23:21:00,
2014-03-09 19:22:00,79.2,69.4,29.99,North,0,8.0,10.0,78,0.00,,,0.00,meteohub,2014-03-09 23:22:00,
2014-03-09 19:24:00,79.3,69.4,30.00,North,0,7.0,10.0,78,0.00,,,0.00,meteohub,2014-03-09 23:24:00,
2014-03-09 19:25:00,79.3,69.4,30.00,North,0,9.0,10.0,78,0.00,,,0.00,meteohub,2014-03-09 23:25:00,
2014-03-09 19:26:00,79.5,69.4,30.00,NE,45,8.0,10.0,78,0.00,,,0.00,meteohub,2014-03-09 23:26:00,
2014-03-09 19:28:00,79.2,69.8,29.99,North,0,10.0,10.0,78,0.00,,,0.00,meteohub,2014-03-09 23:28:00,
2014-03-09 19:29:00,79.2,69.8,30.00,North,0,7.0,10.0,78,0.00,,,0.00,meteohub,2014-03-09 23:29:00,
2014-03-09 19:31:00,79.3,69.8,30.00,NW,315,7.0,9.0,78,0.00,,,0.00,meteohub,2014-03-09 23:31:00,
2014-03-09 19:32:00,79.3,69.8,30.00,NW,315,7.0,9.0,78,0.00,,,0.00,meteohub,2014-03-09 23:32:00,
2014-03-09 19:34:00,79.3,69.4,30.00,NE,45,6.0,9.0,78,0.00,,,0.00,meteohub,2014-03-09 23:34:00,
2014-03-09 19:35:00,79.5,69.4,30.00,NE,45,5.0,10.0,78,0.00,,,0.00,meteohub,2014-03-09 23:35:00,
2014-03-09 19:37:00,79.3,69.4,30.00,NE,45,5.0,10.0,78,0.00,,,0.00,meteohub,2014-03-09 23:37:00,
2014-03-09 19:38:00,79.5,69.4,30.00,NE,45,9.0,10.0,78,0.00,,,0.00,meteohub,2014-03-09 23:38:00,
2014-03-09 19:41:00,79.3,69.4,30.00,NE,45,5.0,10.0,77,0.00,,,0.00,meteohub,2014-03-09 23:41:00,
2014-03-09 19:43:00,79.5,69.4,30.00,North,0,4.0,10.0,78,0.00,,,0.00,meteohub,2014-03-09 23:43:00,
2014-03-09 19:44:00,79.3,69.4,30.00,NNE,23,5.0,10.0,78,0.00,,,0.00,meteohub,2014-03-09 23:44:00,
2014-03-09 19:45:00,79.5,69.4,30.01,NE,45,4.0,9.0,78,0.00,,,0.00,meteohub,2014-03-09 23:45:00,
2014-03-09 19:47:00,79.5,69.4,30.01,North,0,6.0,9.0,78,0.00,,,0.00,meteohub,2014-03-09 23:47:00,
2014-03-09 19:49:00,79.5,69.4,30.01,WNW,293,6.0,9.0,78,0.00,,,0.00,meteohub,2014-03-09 23:49:00,
2014-03-09 19:50:00,79.5,69.4,30.00,NW,315,7.0,11.0,77,0.00,,,0.00,meteohub,2014-03-09 23:50:00,
2014-03-09 19:51:00,79.5,69.4,30.01,North,0,7.0,11.0,77,0.00,,,0.00,meteohub,2014-03-09 23:51:00,
2014-03-09 19:52:00,79.5,69.4,30.00,NNE,23,8.0,11.0,77,0.00,,,0.00,meteohub,2014-03-09 23:52:00,
2014-03-09 19:53:00,79.5,69.4,30.01,NNE,23,6.0,11.0,77,0.00,,,0.00,meteohub,2014-03-09 23:53:00,
2014-03-09 19:57:00,79.3,69.4,30.01,North,0,6.0,11.0,77,0.00,,,0.00,meteohub,2014-03-09 23:57:00,
2014-03-09 19:58:00,79.2,69.4,30.01,NE,45,7.0,11.0,77,0.00,,,0.00,meteohub,2014-03-09 23:58:00,
2014-03-09 19:59:00,79.2,69.4,30.01,North,0,5.0,11.0,77,0.00,,,0.00,meteohub,2014-03-09 23:59:00,
2014-03-09 20:03:00,79.2,69.4,30.01,North,0,9.0,11.0,77,0.00,,,0.00,meteohub,2014-03-10 00:03:00,
2014-03-09 20:04:00,79.2,69.4,30.01,North,0,8.0,11.0,77,0.00,,,0.00,meteohub,2014-03-10 00:04:00,
2014-03-09 20:06:00,79.2,69.4,30.01,North,0,7.0,11.0,77,0.00,,,0.00,meteohub,2014-03-10 00:06:00,
2014-03-09 20:09:00,79.2,69.4,30.01,NW,315,7.0,11.0,77,0.00,,,0.00,meteohub,2014-03-10 00:09:00,
2014-03-09 20:10:00,79.2,69.4,30.01,NW,315,6.0,11.0,77,0.00,,,0.00,meteohub,2014-03-10 00:10:00,
2014-03-09 20:11:00,79.2,69.4,30.01,ENE,68,4.0,11.0,77,0.00,,,0.00,meteohub,2014-03-10 00:11:00,
2014-03-09 20:12:00,79.2,69.4,30.01,North,0,6.0,11.0,77,0.00,,,0.00,meteohub,2014-03-10 00:12:00,
2014-03-09 20:13:00,79.2,69.4,30.01,NNE,23,5.0,11.0,77,0.00,,,0.00,meteohub,2014-03-10 00:13:00,
2014-03-09 20:15:00,79.2,69.8,30.01,NW,315,6.0,9.0,76,0.00,,,0.00,meteohub,2014-03-10 00:15:00,
2014-03-09 20:17:00,79.2,69.8,30.01,North,0,4.0,9.0,76,0.00,,,0.00,meteohub,2014-03-10 00:17:00,
2014-03-09 20:18:00,79.2,69.4,30.01,NE,45,6.0,9.0,76,0.00,,,0.00,meteohub,2014-03-10 00:18:00,
2014-03-09 20:22:00,79.2,69.4,30.01,NE,45,5.0,8.0,77,0.00,,,0.00,meteohub,2014-03-10 00:22:00,
2014-03-09 20:23:00,79.3,69.8,30.01,NW,315,6.0,8.0,77,0.00,,,0.00,meteohub,2014-03-10 00:23:00,
2014-03-09 20:24:00,79.3,69.8,30.01,North,0,6.0,8.0,77,0.00,,,0.00,meteohub,2014-03-10 00:24:00,
2014-03-09 20:27:00,79.2,69.8,30.01,North,0,9.0,9.0,76,0.00,,,0.00,meteohub,2014-03-10 00:27:00,
2014-03-09 20:29:00,79.2,69.8,30.01,North,0,5.0,8.0,77,0.00,,,0.00,meteohub,2014-03-10 00:29:00,
2014-03-09 20:34:00,79.2,69.8,30.02,NE,45,8.0,9.0,77,0.00,,,0.00,meteohub,2014-03-10 00:34:00,
2014-03-09 20:35:00,79.2,69.4,30.02,East,90,6.0,9.0,77,0.00,,,0.00,meteohub,2014-03-10 00:35:00,
2014-03-09 20:36:00,79.2,69.8,30.02,North,0,5.0,9.0,77,0.00,,,0.00,meteohub,2014-03-10 00:36:00,
2014-03-09 20:39:00,79.2,69.8,30.02,North,0,5.0,9.0,77,0.00,,,0.00,meteohub,2014-03-10 00:39:00,
2014-03-09 20:40:00,79.2,69.8,30.02,North,0,5.0,9.0,77,0.00,,,0.00,meteohub,2014-03-10 00:40:00,
2014-03-09 20:41:00,79.2,69.4,30.02,North,0,7.0,9.0,77,0.00,,,0.00,meteohub,2014-03-10 00:41:00,
2014-03-09 20:43:00,79.2,69.4,30.02,SW,225,5.0,9.0,77,0.00,,,0.00,meteohub,2014-03-10 00:43:00,
2014-03-09 20:45:00,79.2,69.4,30.02,North,0,8.0,9.0,77,0.00,,,0.00,meteohub,2014-03-10 00:45:00,
2014-03-09 20:46:00,79.2,69.6,30.02,North,0,6.0,9.0,77,0.00,,,0.00,meteohub,2014-03-10 00:46:00,
2014-03-09 20:48:00,79.2,69.6,30.02,North,0,6.0,9.0,77,0.00,,,0.00,meteohub,2014-03-10 00:48:00,
2014-03-09 20:49:00,79.2,69.4,30.02,North,0,6.0,9.0,77,0.00,,,0.00,meteohub,2014-03-10 00:49:00,
2014-03-09 20:50:00,79.2,69.6,30.02,NNW,338,6.0,9.0,77,0.00,,,0.00,meteohub,2014-03-10 00:50:00,
2014-03-09 20:51:00,79.2,69.4,30.02,NE,45,8.0,9.0,77,0.00,,,0.00,meteohub,2014-03-10 00:51:00,
2014-03-09 20:54:00,79.2,69.4,30.02,North,0,4.0,9.0,77,0.00,,,0.00,meteohub,2014-03-10 00:54:00,
2014-03-09 20:55:00,79.2,69.4,30.02,NNE,23,8.0,9.0,77,0.00,,,0.00,meteohub,2014-03-10 00:55:00,
2014-03-09 20:56:00,79.2,69.6,30.02,North,0,7.0,9.0,77,0.00,,,0.00,meteohub,2014-03-10 00:56:00,
2014-03-09 20:57:00,79.2,69.6,30.02,NW,315,8.0,9.0,77,0.00,,,0.00,meteohub,2014-03-10 00:57:00,
2014-03-09 21:00:00,79.2,69.4,30.02,North,0,8.0,9.0,77,0.00,,,0.00,meteohub,2014-03-10 01:00:00,
2014-03-09 21:02:00,79.0,69.6,30.02,North,0,7.0,9.0,77,0.00,,,0.00,meteohub,2014-03-10 01:02:00,
2014-03-09 21:03:00,79.0,69.4,30.02,NE,45,6.0,9.0,77,0.00,,,0.00,meteohub,2014-03-10 01:03:00,
2014-03-09 21:07:00,79.2,69.4,30.03,NE,45,4.0,8.0,77,0.00,,,0.00,meteohub,2014-03-10 01:07:00,
2014-03-09 21:08:00,79.0,69.6,30.03,North,0,8.0,8.0,77,0.00,,,0.00,meteohub,2014-03-10 01:08:00,
2014-03-09 21:09:00,79.0,69.3,30.02,North,0,7.0,8.0,77,0.00,,,0.00,meteohub,2014-03-10 01:09:00,
2014-03-09 21:10:00,79.0,69.3,30.02,NE,45,6.0,8.0,77,0.00,,,0.00,meteohub,2014-03-10 01:10:00,
2014-03-09 21:15:00,79.0,69.3,30.02,North,0,7.0,8.0,76,0.00,,,0.00,meteohub,2014-03-10 01:15:00,
2014-03-09 21:17:00,78.8,69.3,30.03,WNW,293,6.0,8.0,76,0.00,,,0.00,meteohub,2014-03-10 01:17:00,
2014-03-09 21:18:00,79.0,69.6,30.03,North,0,4.0,8.0,76,0.00,,,0.00,meteohub,2014-03-10 01:18:00,
2014-03-09 21:20:00,79.0,69.3,30.03,NE,45,6.0,8.0,76,0.00,,,0.00,meteohub,2014-03-10 01:20:00,
2014-03-09 21:21:00,79.0,69.3,30.03,NE,45,6.0,8.0,76,0.00,,,0.00,meteohub,2014-03-10 01:21:00,
2014-03-09 21:23:00,79.0,69.3,30.03,North,0,5.0,8.0,76,0.00,,,0.00,meteohub,2014-03-10 01:23:00,
2014-03-09 21:26:00,79.0,69.3,30.03,NW,315,4.0,8.0,77,0.00,,,0.00,meteohub,2014-03-10 01:26:00,
2014-03-09 21:27:00,78.8,69.3,30.03,NW,315,7.0,8.0,77,0.00,,,0.00,meteohub,2014-03-10 01:27:00,
2014-03-09 21:28:00,78.8,69.4,30.03,North,0,5.0,8.0,77,0.00,,,0.00,meteohub,2014-03-10 01:28:00,
2014-03-09 21:31:00,79.0,69.4,30.03,North,0,5.0,8.0,77,0.00,,,0.00,meteohub,2014-03-10 01:31:00,
2014-03-09 21:32:00,78.8,69.3,30.03,NW,315,5.0,8.0,77,0.00,,,0.00,meteohub,2014-03-10 01:32:00,
2014-03-09 21:33:00,78.8,69.3,30.03,NW,315,5.0,8.0,77,0.00,,,0.00,meteohub,2014-03-10 01:33:00,
2014-03-09 21:34:00,78.8,69.3,30.03,NW,315,6.0,8.0,77,0.00,,,0.00,meteohub,2014-03-10 01:34:00,
2014-03-09 21:35:00,78.8,69.4,30.03,NW,315,5.0,7.0,77,0.00,,,0.00,meteohub,2014-03-10 01:35:00,
2014-03-09 21:36:00,78.8,69.4,30.03,NE,45,4.0,7.0,78,0.00,,,0.00,meteohub,2014-03-10 01:36:00,
2014-03-09 21:39:00,78.8,69.1,30.03,North,0,5.0,7.0,78,0.00,,,0.00,meteohub,2014-03-10 01:39:00,
2014-03-09 21:41:00,78.6,69.1,30.03,NE,45,3.0,7.0,79,0.00,,,0.00,meteohub,2014-03-10 01:41:00,
2014-03-09 21:42:00,78.6,69.1,30.03,North,0,3.0,7.0,79,0.00,,,0.00,meteohub,2014-03-10 01:42:00,
2014-03-09 21:43:00,78.6,69.1,30.03,North,0,4.0,7.0,79,0.00,,,0.00,meteohub,2014-03-10 01:43:00,
2014-03-09 21:44:00,78.8,69.1,30.03,North,0,7.0,7.0,78,0.00,,,0.00,meteohub,2014-03-10 01:44:00,
2014-03-09 21:45:00,78.8,69.1,30.03,NNW,338,5.0,7.0,78,0.00,,,0.00,meteohub,2014-03-10 01:45:00,
2014-03-09 21:46:00,78.8,69.1,30.03,NNW,338,5.0,7.0,78,0.00,,,0.00,meteohub,2014-03-10 01:46:00,
2014-03-09 21:49:00,78.6,69.1,30.03,North,0,4.0,7.0,79,0.00,,,0.00,meteohub,2014-03-10 01:49:00,
2014-03-09 21:50:00,78.6,69.1,30.03,North,0,6.0,7.0,79,0.00,,,0.00,meteohub,2014-03-10 01:50:00,
2014-03-09 21:51:00,78.6,69.1,30.03,North,0,4.0,7.0,79,0.00,,,0.00,meteohub,2014-03-10 01:51:00,
2014-03-09 21:52:00,78.6,69.1,30.03,NE,45,4.0,7.0,79,0.00,,,0.00,meteohub,2014-03-10 01:52:00,
2014-03-09 21:53:00,78.6,69.1,30.03,NE,45,4.0,7.0,79,0.00,,,0.00,meteohub,2014-03-10 01:53:00,
2014-03-09 21:54:00,78.8,69.1,30.03,NW,315,4.0,7.0,78,0.00,,,0.00,meteohub,2014-03-10 01:54:00,
2014-03-09 21:56:00,78.8,69.1,30.03,NE,45,4.0,7.0,79,0.00,,,0.00,meteohub,2014-03-10 01:56:00,
2014-03-09 21:58:00,78.8,69.1,30.03,North,0,6.0,7.0,79,0.00,,,0.00,meteohub,2014-03-10 01:58:00,
2014-03-09 21:59:00,78.8,69.1,30.03,North,0,5.0,7.0,79,0.00,,,0.00,meteohub,2014-03-10 01:59:00,
2014-03-09 22:00:00,78.8,69.1,30.03,North,0,8.0,8.0,79,0.00,,,0.00,meteohub,2014-03-10 02:00:00,
2014-03-09 22:01:00,78.8,68.9,30.03,NE,45,5.0,8.0,79,0.00,,,0.00,meteohub,2014-03-10 02:01:00,
2014-03-09 22:02:00,78.8,70.0,30.04,East,90,4.0,8.0,79,0.00,,,0.00,meteohub,2014-03-10 02:02:00,
2014-03-09 22:03:00,78.8,69.6,30.03,NW,315,4.0,8.0,79,0.00,,,0.00,meteohub,2014-03-10 02:03:00,
2014-03-09 22:04:00,78.8,69.6,30.03,NW,315,4.0,8.0,79,0.00,,,0.00,meteohub,2014-03-10 02:04:00,
2014-03-09 22:06:00,79.0,69.6,30.03,North,0,4.0,8.0,79,0.00,,,0.00,meteohub,2014-03-10 02:06:00,
2014-03-09 22:08:00,79.2,69.6,30.03,North,0,3.0,8.0,78,0.00,,,0.00,meteohub,2014-03-10 02:08:00,
2014-03-09 22:09:00,79.0,69.6,30.04,East,90,4.0,8.0,78,0.00,,,0.00,meteohub,2014-03-10 02:09:00,
2014-03-09 22:10:00,79.2,69.6,30.03,North,0,4.0,8.0,78,0.00,,,0.00,meteohub,2014-03-10 02:10:00,
2014-03-09 22:12:00,79.2,69.6,30.03,NW,315,3.0,8.0,78,0.00,,,0.00,meteohub,2014-03-10 02:12:00,
2014-03-09 22:14:00,79.2,69.6,30.04,North,0,7.0,8.0,78,0.00,,,0.00,meteohub,2014-03-10 02:14:00,
2014-03-09 22:16:00,79.2,69.6,30.04,North,0,6.0,7.0,77,0.00,,,0.00,meteohub,2014-03-10 02:16:00,
2014-03-09 22:17:00,79.2,69.6,30.03,NNE,23,5.0,7.0,77,0.00,,,0.00,meteohub,2014-03-10 02:17:00,
2014-03-09 22:20:00,79.2,69.6,30.03,North,0,4.0,7.0,77,0.00,,,0.00,meteohub,2014-03-10 02:20:00,
2014-03-09 22:21:00,79.2,69.6,30.03,North,0,3.0,7.0,77,0.00,,,0.00,meteohub,2014-03-10 02:21:00,
2014-03-09 22:22:00,79.0,69.6,30.03,NE,45,4.0,7.0,77,0.00,,,0.00,meteohub,2014-03-10 02:22:00,
2014-03-09 22:24:00,79.2,69.6,30.03,East,90,4.0,7.0,77,0.00,,,0.00,meteohub,2014-03-10 02:24:00,
2014-03-09 22:25:00,79.0,69.6,30.04,NE,45,2.0,7.0,78,0.00,,,0.00,meteohub,2014-03-10 02:25:00,
2014-03-09 22:28:00,79.2,69.4,30.03,NE,45,3.0,7.0,78,0.00,,,0.00,meteohub,2014-03-10 02:28:00,
2014-03-09 22:30:00,79.2,69.4,30.04,NE,45,2.0,6.0,78,0.00,,,0.00,meteohub,2014-03-10 02:30:00,
2014-03-09 22:31:00,79.2,69.4,30.04,East,90,2.0,6.0,78,0.00,,,0.00,meteohub,2014-03-10 02:31:00,
2014-03-09 22:33:00,79.0,69.4,30.04,NE,45,4.0,6.0,78,0.00,,,0.00,meteohub,2014-03-10 02:33:00,
2014-03-09 22:35:00,79.2,69.4,30.04,ENE,68,4.0,6.0,79,0.00,,,0.00,meteohub,2014-03-10 02:35:00,
2014-03-09 22:36:00,79.2,69.4,30.03,East,90,4.0,5.0,79,0.00,,,0.00,meteohub,2014-03-10 02:36:00,
2014-03-09 22:38:00,79.2,69.4,30.03,East,90,4.0,5.0,79,0.00,,,0.00,meteohub,2014-03-10 02:38:00,
2014-03-09 22:39:00,79.2,69.4,30.04,NE,45,3.0,5.0,79,0.00,,,0.00,meteohub,2014-03-10 02:39:00,
2014-03-09 22:40:00,79.2,69.4,30.03,ENE,68,2.0,5.0,79,0.00,,,0.00,meteohub,2014-03-10 02:40:00,
2014-03-09 22:42:00,79.0,69.4,30.03,North,0,2.0,5.0,79,0.00,,,0.00,meteohub,2014-03-10 02:42:00,
2014-03-09 22:43:00,79.0,69.4,30.03,North,0,4.0,5.0,79,0.00,,,0.00,meteohub,2014-03-10 02:43:00,
2014-03-09 22:44:00,79.0,69.4,30.03,North,0,4.0,5.0,79,0.00,,,0.00,meteohub,2014-03-10 02:44:00,
2014-03-09 22:46:00,79.0,69.4,30.03,East,90,3.0,5.0,78,0.00,,,0.00,meteohub,2014-03-10 02:46:00,
2014-03-09 22:47:00,79.0,69.4,30.03,North,0,3.0,5.0,78,0.00,,,0.00,meteohub,2014-03-10 02:47:00,
2014-03-09 22:48:00,79.0,69.4,30.03,NW,315,2.0,5.0,78,0.00,,,0.00,meteohub,2014-03-10 02:48:00,
2014-03-09 22:52:00,79.0,69.4,30.03,East,90,3.0,4.0,78,0.00,,,0.00,meteohub,2014-03-10 02:52:00,
2014-03-09 22:53:00,79.0,69.4,30.03,NE,45,4.0,4.0,78,0.00,,,0.00,meteohub,2014-03-10 02:53:00,
2014-03-09 22:54:00,79.0,69.4,30.03,NNE,23,2.0,4.0,78,0.00,,,0.00,meteohub,2014-03-10 02:54:00,
2014-03-09 22:56:00,79.0,69.3,30.03,East,90,4.0,4.0,78,0.00,,,0.00,meteohub,2014-03-10 02:56:00,
2014-03-09 22:57:00,79.0,69.6,30.03,NE,45,4.0,4.0,78,0.00,,,0.00,meteohub,2014-03-10 02:57:00,
2014-03-09 22:59:00,78.8,69.3,30.03,ESE,113,3.0,4.0,78,0.00,,,0.00,meteohub,2014-03-10 02:59:00,
2014-03-09 23:01:00,78.8,69.3,30.03,East,90,3.0,4.0,78,0.00,,,0.00,meteohub,2014-03-10 03:01:00,
2014-03-09 23:03:00,78.8,69.3,30.03,East,90,4.0,4.0,78,0.00,,,0.00,meteohub,2014-03-10 03:03:00,
2014-03-09 23:04:00,78.8,69.6,30.03,East,90,4.0,4.0,78,0.00,,,0.00,meteohub,2014-03-10 03:04:00,
2014-03-09 23:05:00,78.8,69.6,30.03,East,90,4.0,4.0,78,0.00,,,0.00,meteohub,2014-03-10 03:05:00,
2014-03-09 23:07:00,78.8,69.3,30.03,NE,45,3.0,4.0,78,0.00,,,0.00,meteohub,2014-03-10 03:07:00,
2014-03-09 23:08:00,78.6,69.3,30.03,ENE,68,3.0,4.0,80,0.00,,,0.00,meteohub,2014-03-10 03:08:00,
2014-03-09 23:10:00,78.4,69.3,30.03,North,0,3.0,4.0,80,0.00,,,0.00,meteohub,2014-03-10 03:10:00,
2014-03-09 23:11:00,78.6,69.4,30.03,NNE,23,4.0,4.0,81,0.00,,,0.00,meteohub,2014-03-10 03:11:00,
2014-03-09 23:13:00,78.6,69.4,30.02,East,90,4.0,4.0,81,0.00,,,0.00,meteohub,2014-03-10 03:13:00,
2014-03-09 23:14:00,78.6,69.4,30.03,NNW,338,4.0,4.0,81,0.00,,,0.00,meteohub,2014-03-10 03:14:00,
2014-03-09 23:16:00,78.6,69.4,30.02,NW,315,2.0,4.0,80,0.00,,,0.00,meteohub,2014-03-10 03:16:00,
2014-03-09 23:18:00,78.6,69.3,30.02,NE,45,2.0,4.0,80,0.00,,,0.00,meteohub,2014-03-10 03:18:00,
2014-03-09 23:19:00,78.6,69.3,30.02,North,0,2.0,4.0,80,0.00,,,0.00,meteohub,2014-03-10 03:19:00,
2014-03-09 23:21:00,78.6,69.1,30.02,East,90,4.0,4.0,80,0.00,,,0.00,meteohub,2014-03-10 03:21:00,
2014-03-09 23:22:00,78.6,69.1,30.02,North,0,2.0,4.0,80,0.00,,,0.00,meteohub,2014-03-10 03:22:00,
2014-03-09 23:23:00,78.6,69.1,30.02,SE,135,2.0,4.0,80,0.00,,,0.00,meteohub,2014-03-10 03:23:00,
2014-03-09 23:24:00,78.6,69.1,30.02,SE,135,2.0,4.0,80,0.00,,,0.00,meteohub,2014-03-10 03:24:00,
2014-03-09 23:25:00,78.6,69.1,30.02,East,90,3.0,4.0,80,0.00,,,0.00,meteohub,2014-03-10 03:25:00,
2014-03-09 23:27:00,78.6,69.1,30.02,NNE,23,2.0,4.0,80,0.00,,,0.00,meteohub,2014-03-10 03:27:00,
2014-03-09 23:29:00,78.6,69.1,30.02,NE,45,2.0,4.0,80,0.00,,,0.00,meteohub,2014-03-10 03:29:00,
2014-03-09 23:30:00,78.6,69.1,30.02,North,0,2.0,4.0,80,0.00,,,0.00,meteohub,2014-03-10 03:30:00,
2014-03-09 23:31:00,78.6,69.1,30.02,North,0,5.0,5.0,80,0.00,,,0.00,meteohub,2014-03-10 03:31:00,
2014-03-09 23:33:00,78.6,69.1,30.02,NE,45,4.0,4.0,80,0.00,,,0.00,meteohub,2014-03-10 03:33:00,
2014-03-09 23:34:00,78.6,69.1,30.02,East,90,3.0,4.0,80,0.00,,,0.00,meteohub,2014-03-10 03:34:00,
2014-03-09 23:36:00,78.4,69.1,30.02,NE,45,2.0,5.0,80,0.00,,,0.00,meteohub,2014-03-10 03:36:00,
2014-03-09 23:37:00,78.6,69.1,30.02,East,90,4.0,5.0,80,0.00,,,0.00,meteohub,2014-03-10 03:37:00,
2014-03-09 23:39:00,78.4,69.1,30.02,NE,45,2.0,5.0,80,0.00,,,0.00,meteohub,2014-03-10 03:39:00,
2014-03-09 23:40:00,78.4,69.1,30.02,NE,45,2.0,5.0,80,0.00,,,0.00,meteohub,2014-03-10 03:40:00,
2014-03-09 23:41:00,78.6,69.1,30.02,NNE,23,3.0,5.0,80,0.00,,,0.00,meteohub,2014-03-10 03:41:00,
2014-03-09 23:42:00,78.6,69.1,30.02,NNE,23,3.0,5.0,80,0.00,,,0.00,meteohub,2014-03-10 03:42:00,
2014-03-09 23:43:00,78.6,69.4,30.02,North,0,4.0,5.0,80,0.00,,,0.00,meteohub,2014-03-10 03:43:00,
2014-03-09 23:44:00,78.4,69.3,30.02,NE,45,4.0,5.0,80,0.00,,,0.00,meteohub,2014-03-10 03:44:00,
2014-03-09 23:46:00,78.6,69.3,30.02,NE,45,4.0,5.0,80,0.00,,,0.00,meteohub,2014-03-10 03:46:00,
2014-03-09 23:47:00,78.4,69.3,30.02,NE,45,2.0,5.0,80,0.00,,,0.00,meteohub,2014-03-10 03:47:00,
2014-03-09 23:48:00,78.4,69.3,30.02,NE,45,2.0,5.0,80,0.00,,,0.00,meteohub,2014-03-10 03:48:00,
2014-03-09 23:50:00,78.4,69.3,30.02,NE,45,4.0,5.0,80,0.00,,,0.00,meteohub,2014-03-10 03:50:00,
2014-03-09 23:51:00,78.4,69.3,30.02,NE,45,2.0,4.0,80,0.00,,,0.00,meteohub,2014-03-10 03:51:00,
2014-03-09 23:53:00,78.4,69.1,30.02,North,0,2.0,4.0,80,0.00,,,0.00,meteohub,2014-03-10 03:53:00,
2014-03-09 23:55:00,78.4,69.1,30.02,West,270,2.0,4.0,80,0.00,,,0.00,meteohub,2014-03-10 03:55:00,
2014-03-09 23:56:00,78.4,69.4,30.02,West,270,3.0,4.0,80,0.00,,,0.00,meteohub,2014-03-10 03:56:00,
2014-03-09 23:57:00,78.4,69.1,30.02,NW,315,2.0,4.0,80,0.00,,,0.00,meteohub,2014-03-10 03:57:00,
2014-03-09 23:58:00,78.3,69.4,30.02,West,270,4.0,4.0,80,0.00,,,0.00,meteohub,2014-03-10 03:58:00,